| time (UTC) | temp C | wind direction | speed KPH | gust KPH | rain 1hr cm | rain 24hr cm | rain mn cm | humidity % | barometer mb |
| 20260508014004 | 7 | 176 | 8.0 | 20.9 | 0.00 | 0.00 | 0.00 | 84 | 1009.4 |
| 20260508013803 | 7 | 173 | 8.0 | 20.9 | 0.00 | 0.00 | 0.00 | 84 | 1009.5 |
| 20260508013603 | 7 | 170 | 8.0 | 19.3 | 0.00 | 0.00 | 0.00 | 84 | 1009.5 |
| 20260508013404 | 8 | 170 | 9.7 | 19.3 | 0.00 | 0.00 | 0.00 | 84 | 1009.5 |
| 20260508013203 | 8 | 166 | 9.7 | 19.3 | 0.00 | 0.00 | 0.00 | 84 | 1009.4 |
| 20260508013003 | 8 | 168 | 8.0 | 19.3 | 0.00 | 0.00 | 0.00 | 84 | 1009.4 |
| 20260508012804 | 8 | 170 | 9.7 | 19.3 | 0.00 | 0.00 | 0.00 | 84 | 1009.4 |
| 20260508012603 | 8 | 172 | 9.7 | 25.7 | 0.00 | 0.00 | 0.00 | 84 | 1009.4 |
| 20260508012404 | 8 | 171 | 9.7 | 25.7 | 0.00 | 0.00 | 0.00 | 83 | 1009.4 |
| 20260508012203 | 8 | 174 | 9.7 | 25.7 | 0.00 | 0.00 | 0.00 | 83 | 1009.3 |
| 20260508012003 | 8 | 172 | 9.7 | 25.7 | 0.00 | 0.00 | 0.00 | 83 | 1009.4 |
| 20260508011804 | 8 | 171 | 9.7 | 25.7 | 0.00 | 0.00 | 0.00 | 84 | 1009.4 |
| 20260508011605 | 8 | 168 | 9.7 | 20.9 | 0.00 | 0.00 | 0.00 | 83 | 1009.3 |
| 20260508011403 | 8 | 169 | 9.7 | 19.3 | 0.00 | 0.00 | 0.00 | 83 | 1009.4 |
| 20260508011203 | 8 | 168 | 9.7 | 19.3 | 0.00 | 0.00 | 0.00 | 83 | 1009.4 |
| 20260508011004 | 8 | 167 | 9.7 | 27.4 | 0.00 | 0.00 | 0.00 | 83 | 1009.4 |
| 20260508010803 | 8 | 167 | 9.7 | 27.4 | 0.00 | 0.00 | 0.00 | 83 | 1009.3 |
| 20260508010604 | 8 | 166 | 11.3 | 27.4 | 0.00 | 0.00 | 0.00 | 83 | 1009.2 |
| 20260508010403 | 8 | 166 | 11.3 | 27.4 | 0.00 | 0.00 | 0.00 | 83 | 1009.2 |
| 20260508010204 | 8 | 168 | 11.3 | 27.4 | 0.00 | 0.00 | 0.00 | 83 | 1009.2 |
| 20260508010005 | 8 | 171 | 11.3 | 27.4 | 0.00 | 0.00 | 0.00 | 83 | 1009.3 |
| 20260508005803 | 8 | 172 | 11.3 | 22.5 | 0.00 | 0.00 | 0.00 | 83 | 1009.4 |
| 20260508005603 | 8 | 175 | 9.7 | 22.5 | 0.00 | 0.00 | 0.00 | 83 | 1009.3 |
| 20260508005403 | 8 | 178 | 9.7 | 22.5 | 0.00 | 0.00 | 0.00 | 83 | 1009.4 |
| 20260508005204 | 8 | 180 | 9.7 | 22.5 | 0.00 | 0.00 | 0.00 | 83 | 1009.4 |
| 20260508005003 | 8 | 179 | 9.7 | 19.3 | 0.00 | 0.00 | 0.00 | 83 | 1009.5 |
| 20260508004803 | 8 | 178 | 9.7 | 19.3 | 0.00 | 0.00 | 0.00 | 83 | 1009.4 |
| 20260508004604 | 8 | 177 | 9.7 | 19.3 | 0.00 | 0.00 | 0.00 | 82 | 1009.4 |
| 20260508004403 | 8 | 173 | 8.0 | 19.3 | 0.00 | 0.00 | 0.00 | 82 | 1009.4 |
| 20260508004204 | 8 | 169 | 8.0 | 17.7 | 0.00 | 0.00 | 0.00 | 82 | 1009.4 |
| 20260508004003 | 8 | 168 | 8.0 | 17.7 | 0.00 | 0.00 | 0.00 | 82 | 1009.3 |
| 20260508003804 | 8 | 170 | 8.0 | 25.7 | 0.00 | 0.00 | 0.00 | 82 | 1009.3 |
| 20260508003603 | 8 | 172 | 8.0 | 25.7 | 0.00 | 0.00 | 0.00 | 82 | 1009.4 |
| 20260508003403 | 8 | 178 | 8.0 | 25.7 | 0.00 | 0.00 | 0.00 | 82 | 1009.3 |
| 20260508003204 | 8 | 179 | 8.0 | 25.7 | 0.00 | 0.00 | 0.00 | 82 | 1009.4 |
| 20260508003005 | 8 | 181 | 8.0 | 25.7 | 0.00 | 0.00 | 0.00 | 82 | 1009.4 |
| 20260508002804 | 8 | 176 | 8.0 | 20.9 | 0.00 | 0.00 | 0.00 | 82 | 1009.4 |
| 20260508002603 | 8 | 178 | 8.0 | 20.9 | 0.00 | 0.00 | 0.00 | 82 | 1009.5 |
| 20260508002403 | 8 | 178 | 9.7 | 20.9 | 0.00 | 0.00 | 0.00 | 82 | 1009.5 |
| 20260508002203 | 8 | 181 | 9.7 | 19.3 | 0.00 | 0.00 | 0.00 | 82 | 1009.5 |
| 20260508002005 | 8 | 182 | 9.7 | 19.3 | 0.00 | 0.00 | 0.00 | 82 | 1009.5 |
| 20260508001803 | 8 | 187 | 8.0 | 19.3 | 0.00 | 0.00 | 0.00 | 81 | 1009.6 |
| 20260508001603 | 8 | 187 | 8.0 | 19.3 | 0.00 | 0.00 | 0.00 | 82 | 1009.7 |
| 20260508001405 | 8 | 188 | 8.0 | 19.3 | 0.00 | 0.00 | 0.00 | 82 | 1009.6 |
| 20260508001204 | 8 | 188 | 8.0 | 20.9 | 0.00 | 0.00 | 0.00 | 82 | 1009.7 |
| 20260508001004 | 8 | 189 | 8.0 | 20.9 | 0.00 | 0.00 | 0.00 | 82 | 1009.6 |
| 20260508000803 | 8 | 189 | 8.0 | 20.9 | 0.00 | 0.00 | 0.00 | 82 | 1009.6 |
| 20260508000604 | 8 | 190 | 8.0 | 20.9 | 0.00 | 0.00 | 0.00 | 82 | 1009.5 |
| 20260508000404 | 8 | 190 | 9.7 | 20.9 | 0.00 | 0.00 | 0.00 | 82 | 1009.7 |
| 20260508000204 | 8 | 188 | 9.7 | 19.3 | 0.00 | 0.00 | 0.00 | 82 | 1009.7 |
| 20260508000003 | 8 | 184 | 9.7 | 19.3 | 0.00 | 0.00 | 0.00 | 82 | 1009.6 |
| 20260507235803 | 8 | 178 | 9.7 | 20.9 | 0.00 | 0.00 | 0.00 | 83 | 1009.6 |
| 20260507235605 | 8 | 171 | 9.7 | 20.9 | 0.00 | 0.00 | 0.00 | 83 | 1009.5 |
| 20260507235405 | 8 | 166 | 8.0 | 20.9 | 0.00 | 0.00 | 0.00 | 83 | 1009.5 |
| 20260507235203 | 8 | 165 | 8.0 | 20.9 | 0.00 | 0.00 | 0.00 | 84 | 1009.5 |
| 20260507235003 | 8 | 165 | 6.4 | 20.9 | 0.00 | 0.00 | 0.00 | 84 | 1009.5 |
| 20260507234803 | 8 | 170 | 6.4 | 20.9 | 0.00 | 0.00 | 0.00 | 83 | 1009.5 |
| 20260507234603 | 8 | 173 | 6.4 | 20.9 | 0.00 | 0.00 | 0.00 | 84 | 1009.5 |
| 20260507234403 | 8 | 170 | 6.4 | 20.9 | 0.00 | 0.00 | 0.00 | 84 | 1009.5 |
| 20260507234203 | 8 | 166 | 6.4 | 20.9 | 0.00 | 0.00 | 0.00 | 84 | 1009.4 |
| 20260507234005 | 8 | 162 | 6.4 | 16.1 | 0.00 | 0.00 | 0.00 | 84 | 1009.6 |
| 20260507233804 | 8 | 158 | 6.4 | 12.9 | 0.00 | 0.00 | 0.00 | 84 | 1009.5 |
| 20260507233603 | 7 | 151 | 6.4 | 16.1 | 0.00 | 0.00 | 0.00 | 84 | 1009.6 |
| 20260507233403 | 7 | 149 | 4.8 | 16.1 | 0.00 | 0.00 | 0.00 | 83 | 1009.6 |
| 20260507233204 | 7 | 149 | 4.8 | 16.1 | 0.00 | 0.00 | 0.00 | 83 | 1009.5 |
| 20260507233005 | 7 | 152 | 4.8 | 16.1 | 0.00 | 0.00 | 0.00 | 83 | 1009.6 |
| 20260507232803 | 7 | 150 | 3.2 | 16.1 | 0.00 | 0.00 | 0.00 | 83 | 1009.6 |
| 20260507232603 | 7 | 159 | 3.2 | 9.7 | 0.00 | 0.00 | 0.00 | 82 | 1009.5 |
| 20260507232403 | 8 | 163 | 3.2 | 9.7 | 0.00 | 0.00 | 0.00 | 82 | 1009.6 |
| 20260507232204 | 8 | 172 | 1.6 | 9.7 | 0.00 | 0.00 | 0.00 | 82 | 1009.6 |
| 20260507232004 | 8 | 171 | 3.2 | 11.3 | 0.00 | 0.00 | 0.00 | 82 | 1009.7 |
| 20260507231804 | 8 | 173 | 3.2 | 11.3 | 0.00 | 0.00 | 0.00 | 82 | 1009.7 |
| 20260507231603 | 8 | 173 | 3.2 | 11.3 | 0.00 | 0.00 | 0.00 | 82 | 1009.7 |
| 20260507231403 | 8 | 173 | 3.2 | 11.3 | 0.00 | 0.00 | 0.00 | 82 | 1009.7 |
| 20260507231203 | 8 | 167 | 3.2 | 11.3 | 0.00 | 0.00 | 0.00 | 82 | 1009.8 |
| 20260507231004 | 8 | 169 | 3.2 | 9.7 | 0.00 | 0.00 | 0.00 | 82 | 1009.8 |
| 20260507230804 | 8 | 171 | 3.2 | 9.7 | 0.00 | 0.00 | 0.00 | 82 | 1009.8 |
| 20260507230605 | 8 | 174 | 3.2 | 16.1 | 0.00 | 0.00 | 0.00 | 82 | 1009.7 |
| 20260507230404 | 8 | 183 | 4.8 | 16.1 | 0.00 | 0.00 | 0.00 | 82 | 1009.7 |
| 20260507230203 | 8 | 194 | 4.8 | 16.1 | 0.00 | 0.00 | 0.00 | 82 | 1009.7 |
| 20260507230004 | 8 | 197 | 4.8 | 16.1 | 0.00 | 0.00 | 0.00 | 83 | 1009.8 |
| 20260507225803 | 8 | 199 | 4.8 | 16.1 | 0.00 | 0.00 | 0.00 | 83 | 1009.7 |
| 20260507225603 | 8 | 203 | 3.2 | 12.9 | 0.00 | 0.00 | 0.00 | 83 | 1009.8 |
| 20260507225403 | 8 | 199 | 4.8 | 17.7 | 0.00 | 0.00 | 0.00 | 83 | 1009.7 |
| 20260507225203 | 8 | 185 | 4.8 | 17.7 | 0.00 | 0.00 | 0.00 | 84 | 1009.7 |
| 20260507225004 | 8 | 174 | 4.8 | 17.7 | 0.00 | 0.00 | 0.00 | 84 | 1009.7 |
| 20260507224803 | 8 | 170 | 4.8 | 17.7 | 0.00 | 0.00 | 0.00 | 84 | 1009.7 |
| 20260507224603 | 8 | 169 | 6.4 | 17.7 | 0.00 | 0.00 | 0.00 | 84 | 1009.6 |
| 20260507224405 | 8 | 161 | 6.4 | 12.9 | 0.00 | 0.00 | 0.00 | 84 | 1009.6 |
| 20260507224203 | 8 | 162 | 6.4 | 12.9 | 0.00 | 0.00 | 0.00 | 84 | 1009.6 |
| 20260507224005 | 8 | 168 | 4.8 | 12.9 | 0.00 | 0.00 | 0.00 | 84 | 1009.5 |
| 20260507223803 | 7 | 167 | 6.4 | 12.9 | 0.00 | 0.00 | 0.00 | 84 | 1009.6 |
| 20260507223603 | 7 | 162 | 4.8 | 12.9 | 0.00 | 0.00 | 0.00 | 84 | 1009.5 |
| 20260507223403 | 7 | 161 | 4.8 | 12.9 | 0.00 | 0.00 | 0.00 | 84 | 1009.5 |
| 20260507223203 | 8 | 160 | 4.8 | 12.9 | 0.00 | 0.00 | 0.00 | 84 | 1009.6 |
| 20260507223004 | 8 | 161 | 4.8 | 11.3 | 0.00 | 0.00 | 0.00 | 84 | 1009.6 |
| 20260507222803 | 8 | 167 | 4.8 | 11.3 | 0.00 | 0.00 | 0.00 | 84 | 1009.6 |
| 20260507222604 | 8 | 176 | 4.8 | 11.3 | 0.00 | 0.00 | 0.00 | 84 | 1009.6 |
| 20260507222403 | 8 | 186 | 3.2 | 11.3 | 0.00 | 0.00 | 0.00 | 84 | 1009.7 |
| 20260507222203 | 8 | 193 | 4.8 | 17.7 | 0.00 | 0.00 | 0.00 | 85 | 1009.8 |
| 20260507222004 | 8 | 195 | 4.8 | 17.7 | 0.00 | 0.00 | 0.00 | 84 | 1009.8 |
| 20260507221804 | 8 | 197 | 4.8 | 17.7 | 0.00 | 0.00 | 0.00 | 85 | 1009.9 |
| 20260507221603 | 8 | 197 | 3.2 | 17.7 | 0.00 | 0.00 | 0.00 | 85 | 1009.8 |
| 20260507221404 | 8 | 197 | 3.2 | 17.7 | 0.00 | 0.00 | 0.00 | 85 | 1009.8 |
| 20260507221203 | 8 | 198 | 3.2 | 11.3 | 0.00 | 0.00 | 0.00 | 85 | 1009.8 |
| 20260507221004 | 8 | 198 | 3.2 | 11.3 | 0.00 | 0.00 | 0.00 | 85 | 1009.9 |
| 20260507220805 | 8 | 198 | 4.8 | 12.9 | 0.00 | 0.00 | 0.00 | 85 | 1009.8 |
| 20260507220603 | 8 | 198 | 4.8 | 12.9 | 0.00 | 0.00 | 0.00 | 85 | 1009.8 |
| 20260507220403 | 8 | 196 | 4.8 | 12.9 | 0.00 | 0.00 | 0.00 | 85 | 1009.9 |
| 20260507220204 | 8 | 195 | 4.8 | 12.9 | 0.00 | 0.00 | 0.00 | 86 | 1009.8 |
| 20260507220003 | 8 | 193 | 4.8 | 12.9 | 0.00 | 0.00 | 0.00 | 86 | 1009.9 |
| 20260507215803 | 8 | 191 | 3.2 | 9.7 | 0.00 | 0.00 | 0.00 | 86 | 1009.8 |
| 20260507215604 | 8 | 191 | 3.2 | 11.3 | 0.00 | 0.00 | 0.00 | 86 | 1009.9 |
| 20260507215403 | 7 | 187 | 3.2 | 11.3 | 0.00 | 0.00 | 0.00 | 86 | 1009.9 |
| 20260507215204 | 7 | 184 | 4.8 | 17.7 | 0.00 | 0.00 | 0.00 | 86 | 1009.8 |
| 20260507215004 | 7 | 186 | 4.8 | 17.7 | 0.00 | 0.00 | 0.00 | 86 | 1009.9 |
| 20260507214804 | 7 | 184 | 4.8 | 17.7 | 0.00 | 0.00 | 0.00 | 87 | 1009.8 |
| 20260507214605 | 7 | 181 | 4.8 | 17.7 | 0.00 | 0.00 | 0.00 | 87 | 1009.7 |
| 20260507214403 | 7 | 180 | 4.8 | 17.7 | 0.00 | 0.00 | 0.00 | 87 | 1009.8 |
| 20260507214204 | 7 | 181 | 3.2 | 16.1 | 0.00 | 0.00 | 0.00 | 87 | 1009.8 |
| 20260507214004 | 7 | 173 | 1.6 | 16.1 | 0.00 | 0.00 | 0.00 | 86 | 1009.8 |
| 20260507213804 | 7 | 166 | 1.6 | 8.0 | 0.00 | 0.00 | 0.00 | 86 | 1009.8 |
| 20260507213603 | 7 | 166 | 0.0 | 8.0 | 0.00 | 0.00 | 0.00 | 86 | 1009.8 |
| 20260507213404 | 7 | 166 | 0.0 | 6.4 | 0.00 | 0.00 | 0.00 | 86 | 1009.8 |
| 20260507213204 | 7 | 0 | 0.0 | 0.0 | 0.00 | 0.00 | 0.00 | 86 | 1009.8 |
| 20260507213003 | 7 | 0 | 0.0 | 0.0 | 0.00 | 0.00 | 0.00 | 86 | 1009.8 |
| 20260507212803 | 7 | 0 | 0.0 | 0.0 | 0.00 | 0.00 | 0.00 | 86 | 1009.8 |
| 20260507212604 | 7 | 0 | 0.0 | 0.0 | 0.00 | 0.00 | 0.00 | 86 | 1009.8 |
| 20260507212403 | 7 | 0 | 0.0 | 0.0 | 0.00 | 0.00 | 0.00 | 86 | 1009.9 |
| 20260507212203 | 7 | 0 | 0.0 | 0.0 | 0.00 | 0.00 | 0.00 | 86 | 1009.9 |
| 20260507212003 | 7 | 0 | 0.0 | 0.0 | 0.00 | 0.00 | 0.00 | 85 | 1009.9 |
| 20260507211804 | 7 | 0 | 0.0 | 0.0 | 0.00 | 0.00 | 0.00 | 85 | 1009.8 |
| 20260507211604 | 7 | 163 | 0.0 | 3.2 | 0.00 | 0.00 | 0.00 | 85 | 1009.8 |
| 20260507211403 | 7 | 163 | 0.0 | 3.2 | 0.00 | 0.00 | 0.00 | 85 | 1009.8 |
| 20260507211203 | 7 | 163 | 0.0 | 3.2 | 0.00 | 0.00 | 0.00 | 85 | 1009.8 |
| 20260507211003 | 7 | 162 | 1.6 | 8.0 | 0.00 | 0.00 | 0.00 | 85 | 1009.8 |
| 20260507210805 | 7 | 162 | 1.6 | 8.0 | 0.00 | 0.00 | 0.00 | 85 | 1009.8 |
| 20260507210605 | 7 | 162 | 3.2 | 9.7 | 0.00 | 0.00 | 0.00 | 85 | 1009.8 |
| 20260507210403 | 7 | 165 | 3.2 | 9.7 | 0.00 | 0.00 | 0.00 | 85 | 1009.7 |
| 20260507210204 | 7 | 167 | 4.8 | 9.7 | 0.00 | 0.00 | 0.00 | 85 | 1009.6 |
| 20260507210003 | 8 | 169 | 4.8 | 9.7 | 0.00 | 0.00 | 0.00 | 85 | 1009.7 |
| 20260507205804 | 8 | 171 | 4.8 | 9.7 | 0.00 | 0.00 | 0.00 | 85 | 1009.6 |
| 20260507205603 | 8 | 175 | 4.8 | 9.7 | 0.00 | 0.00 | 0.00 | 85 | 1009.7 |
| 20260507205404 | 8 | 175 | 3.2 | 8.0 | 0.00 | 0.00 | 0.00 | 85 | 1009.8 |
| 20260507205203 | 8 | 175 | 3.2 | 8.0 | 0.00 | 0.00 | 0.00 | 85 | 1009.8 |
| 20260507205004 | 8 | 175 | 3.2 | 8.0 | 0.00 | 0.00 | 0.00 | 85 | 1009.9 |
| 20260507204803 | 8 | 175 | 1.6 | 6.4 | 0.00 | 0.00 | 0.00 | 85 | 1009.9 |
| 20260507204605 | 8 | 175 | 1.6 | 8.0 | 0.00 | 0.00 | 0.00 | 85 | 1009.9 |
| 20260507204403 | 8 | 175 | 3.2 | 8.0 | 0.00 | 0.00 | 0.00 | 85 | 1009.9 |
| 20260507204203 | 8 | 175 | 3.2 | 8.0 | 0.00 | 0.00 | 0.00 | 85 | 1009.8 |
| 20260507204004 | 8 | 175 | 3.2 | 8.0 | 0.00 | 0.00 | 0.00 | 85 | 1009.8 |
| 20260507203804 | 8 | 175 | 3.2 | 8.0 | 0.00 | 0.00 | 0.00 | 85 | 1009.8 |
| 20260507203604 | 8 | 175 | 3.2 | 6.4 | 0.00 | 0.00 | 0.00 | 85 | 1009.8 |
| 20260507203403 | 8 | 175 | 1.6 | 6.4 | 0.00 | 0.00 | 0.00 | 85 | 1009.8 |
| 20260507203203 | 8 | 174 | 1.6 | 6.4 | 0.00 | 0.00 | 0.00 | 84 | 1009.8 |
| 20260507203003 | 8 | 174 | 1.6 | 6.4 | 0.00 | 0.00 | 0.00 | 84 | 1009.8 |
| 20260507202803 | 8 | 174 | 3.2 | 9.7 | 0.00 | 0.00 | 0.00 | 84 | 1009.8 |
| 20260507202605 | 8 | 173 | 3.2 | 9.7 | 0.00 | 0.00 | 0.00 | 84 | 1009.7 |
| 20260507202404 | 8 | 170 | 3.2 | 11.3 | 0.00 | 0.00 | 0.00 | 84 | 1009.7 |
| 20260507202203 | 8 | 167 | 3.2 | 11.3 | 0.00 | 0.00 | 0.00 | 84 | 1009.7 |
| 20260507202003 | 8 | 163 | 3.2 | 11.3 | 0.00 | 0.00 | 0.00 | 84 | 1009.7 |
| 20260507201803 | 8 | 157 | 3.2 | 11.3 | 0.00 | 0.00 | 0.00 | 84 | 1009.7 |
| 20260507201604 | 8 | 153 | 3.2 | 11.3 | 0.00 | 0.00 | 0.00 | 84 | 1009.7 |
| 20260507201403 | 8 | 148 | 4.8 | 11.3 | 0.00 | 0.00 | 0.00 | 84 | 1009.7 |
| 20260507201205 | 8 | 147 | 4.8 | 11.3 | 0.00 | 0.00 | 0.00 | 84 | 1009.6 |
| 20260507201004 | 8 | 146 | 4.8 | 11.3 | 0.00 | 0.00 | 0.00 | 84 | 1009.7 |
| 20260507200803 | 8 | 145 | 6.4 | 16.1 | 0.00 | 0.00 | 0.00 | 84 | 1009.7 |
| 20260507200603 | 8 | 146 | 6.4 | 16.1 | 0.00 | 0.00 | 0.00 | 84 | 1009.6 |
| 20260507200404 | 8 | 147 | 6.4 | 16.1 | 0.00 | 0.00 | 0.00 | 84 | 1009.6 |
| 20260507200203 | 8 | 149 | 6.4 | 16.1 | 0.00 | 0.00 | 0.00 | 84 | 1009.6 |
| 20260507200003 | 8 | 152 | 6.4 | 16.1 | 0.00 | 0.00 | 0.00 | 84 | 1009.7 |
| 20260507195803 | 8 | 157 | 6.4 | 11.3 | 0.00 | 0.00 | 0.00 | 83 | 1009.7 |
| 20260507195604 | 8 | 160 | 4.8 | 12.9 | 0.00 | 0.00 | 0.00 | 83 | 1009.6 |
| 20260507195403 | 8 | 163 | 4.8 | 12.9 | 0.00 | 0.00 | 0.00 | 83 | 1009.6 |
| 20260507195203 | 8 | 168 | 4.8 | 12.9 | 0.00 | 0.00 | 0.00 | 83 | 1009.6 |
| 20260507195003 | 9 | 167 | 4.8 | 12.9 | 0.00 | 0.00 | 0.00 | 83 | 1009.6 |
| 20260507194803 | 9 | 162 | 4.8 | 11.3 | 0.00 | 0.00 | 0.00 | 83 | 1009.6 |
| 20260507194604 | 9 | 157 | 4.8 | 12.9 | 0.00 | 0.00 | 0.00 | 83 | 1009.6 |
| 20260507194403 | 9 | 152 | 4.8 | 12.9 | 0.00 | 0.00 | 0.00 | 83 | 1009.6 |
| 20260507194203 | 9 | 148 | 6.4 | 12.9 | 0.00 | 0.00 | 0.00 | 83 | 1009.6 |
| 20260507194003 | 9 | 146 | 6.4 | 16.1 | 0.00 | 0.00 | 0.00 | 83 | 1009.5 |
| 20260507193804 | 9 | 146 | 6.4 | 16.1 | 0.00 | 0.00 | 0.00 | 83 | 1009.6 |
| 20260507193603 | 9 | 146 | 6.4 | 16.1 | 0.00 | 0.00 | 0.00 | 83 | 1009.6 |
| 20260507193403 | 9 | 145 | 8.0 | 16.1 | 0.00 | 0.00 | 0.00 | 83 | 1009.5 |
| 20260507193204 | 9 | 146 | 8.0 | 16.1 | 0.00 | 0.00 | 0.00 | 83 | 1009.6 |
| 20260507193003 | 9 | 146 | 6.4 | 16.1 | 0.00 | 0.00 | 0.00 | 82 | 1009.6 |
| 20260507192803 | 9 | 146 | 6.4 | 16.1 | 0.00 | 0.00 | 0.00 | 82 | 1009.6 |
| 20260507192603 | 9 | 146 | 6.4 | 16.1 | 0.00 | 0.00 | 0.00 | 82 | 1009.6 |
| 20260507192404 | 9 | 146 | 6.4 | 16.1 | 0.00 | 0.00 | 0.00 | 82 | 1009.5 |
| 20260507192203 | 9 | 145 | 6.4 | 16.1 | 0.00 | 0.00 | 0.00 | 82 | 1009.5 |
| 20260507192004 | 9 | 145 | 6.4 | 16.1 | 0.00 | 0.00 | 0.00 | 82 | 1009.5 |
| 20260507191803 | 9 | 145 | 6.4 | 16.1 | 0.00 | 0.00 | 0.00 | 82 | 1009.6 |
| 20260507191603 | 10 | 146 | 6.4 | 11.3 | 0.00 | 0.00 | 0.00 | 82 | 1009.6 |
| 20260507191403 | 10 | 146 | 6.4 | 17.7 | 0.00 | 0.00 | 0.00 | 82 | 1009.5 |
| 20260507191203 | 10 | 146 | 6.4 | 17.7 | 0.00 | 0.00 | 0.00 | 82 | 1009.5 |
| 20260507191004 | 10 | 145 | 8.0 | 17.7 | 0.00 | 0.00 | 0.00 | 82 | 1009.6 |
| 20260507190803 | 10 | 147 | 8.0 | 17.7 | 0.00 | 0.00 | 0.00 | 82 | 1009.6 |
| 20260507190604 | 10 | 147 | 8.0 | 17.7 | 0.00 | 0.00 | 0.00 | 82 | 1009.6 |
| 20260507190403 | 10 | 147 | 6.4 | 17.7 | 0.00 | 0.00 | 0.00 | 82 | 1009.6 |
| 20260507190203 | 10 | 146 | 8.0 | 17.7 | 0.00 | 0.00 | 0.00 | 82 | 1009.6 |
| 20260507190004 | 10 | 148 | 6.4 | 17.7 | 0.00 | 0.00 | 0.00 | 82 | 1009.5 |
| 20260507185804 | 10 | 147 | 6.4 | 17.7 | 0.00 | 0.00 | 0.00 | 82 | 1009.5 |
| 20260507185604 | 10 | 147 | 8.0 | 19.3 | 0.00 | 0.00 | 0.00 | 82 | 1009.5 |
| 20260507185404 | 10 | 147 | 8.0 | 19.3 | 0.00 | 0.00 | 0.00 | 82 | 1009.6 |
| 20260507185203 | 10 | 147 | 9.7 | 19.3 | 0.00 | 0.00 | 0.00 | 82 | 1009.6 |
| 20260507185004 | 10 | 148 | 9.7 | 19.3 | 0.00 | 0.00 | 0.00 | 82 | 1009.6 |
| 20260507184803 | 10 | 148 | 9.7 | 19.3 | 0.00 | 0.00 | 0.00 | 82 | 1009.5 |
| 20260507184603 | 10 | 147 | 8.0 | 19.3 | 0.00 | 0.00 | 0.00 | 82 | 1009.5 |
| 20260507184404 | 10 | 146 | 8.0 | 20.9 | 0.00 | 0.00 | 0.00 | 82 | 1009.4 |
| 20260507184203 | 10 | 151 | 6.4 | 20.9 | 0.00 | 0.00 | 0.00 | 82 | 1009.5 |
| 20260507184003 | 10 | 154 | 4.8 | 20.9 | 0.00 | 0.00 | 0.00 | 82 | 1009.6 |
| 20260507183804 | 10 | 156 | 4.8 | 20.9 | 0.00 | 0.00 | 0.00 | 81 | 1009.6 |
| 20260507183603 | 10 | 157 | 4.8 | 20.9 | 0.00 | 0.00 | 0.00 | 81 | 1009.7 |
| 20260507183403 | 10 | 156 | 4.8 | 16.1 | 0.00 | 0.00 | 0.00 | 81 | 1009.6 |
| 20260507183204 | 10 | 148 | 4.8 | 16.1 | 0.00 | 0.00 | 0.00 | 81 | 1009.6 |
| 20260507183003 | 10 | 147 | 6.4 | 16.1 | 0.00 | 0.00 | 0.00 | 81 | 1009.7 |
| 20260507182804 | 10 | 144 | 6.4 | 16.1 | 0.00 | 0.00 | 0.00 | 81 | 1009.6 |
| 20260507182603 | 10 | 145 | 6.4 | 17.7 | 0.00 | 0.00 | 0.00 | 81 | 1009.6 |
| 20260507182403 | 10 | 149 | 6.4 | 17.7 | 0.00 | 0.00 | 0.00 | 81 | 1009.6 |
| 20260507182203 | 10 | 148 | 8.0 | 17.7 | 0.00 | 0.00 | 0.00 | 81 | 1009.5 |
| 20260507182004 | 10 | 146 | 8.0 | 17.7 | 0.00 | 0.00 | 0.00 | 81 | 1009.6 |
| 20260507181803 | 10 | 147 | 8.0 | 20.9 | 0.00 | 0.00 | 0.00 | 81 | 1009.6 |
| 20260507181604 | 10 | 146 | 8.0 | 20.9 | 0.00 | 0.00 | 0.00 | 81 | 1009.6 |
| 20260507181403 | 10 | 145 | 9.7 | 20.9 | 0.00 | 0.00 | 0.00 | 81 | 1009.6 |
| 20260507181205 | 10 | 147 | 8.0 | 20.9 | 0.00 | 0.00 | 0.00 | 81 | 1009.6 |
| 20260507181004 | 10 | 148 | 8.0 | 20.9 | 0.00 | 0.00 | 0.00 | 81 | 1009.6 |
| 20260507180803 | 10 | 149 | 8.0 | 19.3 | 0.00 | 0.00 | 0.00 | 81 | 1009.5 |
| 20260507180605 | 10 | 149 | 8.0 | 19.3 | 0.00 | 0.00 | 0.00 | 81 | 1009.5 |
| 20260507180403 | 10 | 149 | 9.7 | 19.3 | 0.00 | 0.00 | 0.00 | 81 | 1009.5 |
| 20260507180203 | 10 | 148 | 9.7 | 19.3 | 0.00 | 0.00 | 0.00 | 81 | 1009.6 |
| 20260507180004 | 10 | 148 | 11.3 | 19.3 | 0.00 | 0.00 | 0.00 | 81 | 1009.6 |
| 20260507175804 | 10 | 147 | 11.3 | 20.9 | 0.00 | 0.00 | 0.00 | 81 | 1009.6 |
| 20260507175604 | 10 | 148 | 11.3 | 22.5 | 0.00 | 0.00 | 0.00 | 81 | 1009.6 |
| 20260507175403 | 10 | 147 | 11.3 | 22.5 | 0.00 | 0.00 | 0.00 | 81 | 1009.5 |
| 20260507175205 | 10 | 148 | 11.3 | 22.5 | 0.00 | 0.00 | 0.00 | 81 | 1009.5 |
| 20260507175004 | 10 | 147 | 9.7 | 22.5 | 0.00 | 0.00 | 0.00 | 81 | 1009.6 |
| 20260507174804 | 10 | 146 | 9.7 | 22.5 | 0.00 | 0.00 | 0.00 | 81 | 1009.5 |
| 20260507174603 | 10 | 146 | 9.7 | 22.5 | 0.00 | 0.00 | 0.00 | 81 | 1009.5 |
| 20260507174403 | 10 | 145 | 9.7 | 22.5 | 0.00 | 0.00 | 0.00 | 81 | 1009.5 |
| 20260507174204 | 10 | 144 | 9.7 | 22.5 | 0.00 | 0.00 | 0.00 | 81 | 1009.5 |
| 20260507174003 | 10 | 145 | 11.3 | 22.5 | 0.00 | 0.00 | 0.00 | 81 | 1009.4 |
| 20260507173803 | 10 | 145 | 9.7 | 22.5 | 0.00 | 0.00 | 0.00 | 81 | 1009.5 |
| 20260507173604 | 10 | 145 | 9.7 | 22.5 | 0.00 | 0.00 | 0.00 | 81 | 1009.5 |
| 20260507173404 | 10 | 147 | 11.3 | 22.5 | 0.00 | 0.00 | 0.00 | 80 | 1009.5 |
| 20260507173204 | 10 | 148 | 11.3 | 22.5 | 0.00 | 0.00 | 0.00 | 80 | 1009.5 |
| 20260507173004 | 10 | 149 | 9.7 | 22.5 | 0.00 | 0.00 | 0.00 | 81 | 1009.5 |
| 20260507172804 | 10 | 151 | 11.3 | 22.5 | 0.00 | 0.00 | 0.00 | 80 | 1009.6 |
| 20260507172603 | 10 | 150 | 12.9 | 22.5 | 0.00 | 0.00 | 0.00 | 80 | 1009.6 |
| 20260507172403 | 10 | 149 | 11.3 | 22.5 | 0.00 | 0.00 | 0.00 | 80 | 1009.5 |
| 20260507172203 | 10 | 149 | 11.3 | 22.5 | 0.00 | 0.00 | 0.00 | 81 | 1009.6 |
| 20260507172004 | 10 | 148 | 11.3 | 22.5 | 0.00 | 0.00 | 0.00 | 81 | 1009.6 |
| 20260507171803 | 10 | 145 | 11.3 | 22.5 | 0.00 | 0.00 | 0.00 | 81 | 1009.6 |
| 20260507171603 | 10 | 145 | 9.7 | 19.3 | 0.00 | 0.00 | 0.00 | 82 | 1009.6 |
| 20260507171404 | 10 | 148 | 9.7 | 19.3 | 0.00 | 0.00 | 0.00 | 82 | 1009.6 |
| 20260507171204 | 10 | 148 | 9.7 | 19.3 | 0.00 | 0.00 | 0.00 | 81 | 1009.6 |
| 20260507171004 | 10 | 151 | 11.3 | 29.0 | 0.00 | 0.00 | 0.00 | 81 | 1009.6 |
| 20260507170803 | 10 | 151 | 11.3 | 29.0 | 0.00 | 0.00 | 0.00 | 81 | 1009.5 |
| 20260507170604 | 10 | 151 | 12.9 | 29.0 | 0.00 | 0.00 | 0.00 | 81 | 1009.6 |
| 20260507170403 | 10 | 150 | 12.9 | 29.0 | 0.00 | 0.00 | 0.00 | 81 | 1009.5 |
| 20260507170204 | 10 | 150 | 11.3 | 29.0 | 0.00 | 0.00 | 0.00 | 80 | 1009.5 |
| 20260507170004 | 10 | 150 | 9.7 | 29.0 | 0.00 | 0.00 | 0.00 | 81 | 1009.5 |
| 20260507165803 | 10 | 151 | 8.0 | 29.0 | 0.00 | 0.00 | 0.00 | 81 | 1009.6 |
| 20260507165603 | 10 | 151 | 6.4 | 16.1 | 0.00 | 0.00 | 0.00 | 81 | 1009.6 |
| 20260507165405 | 10 | 151 | 6.4 | 16.1 | 0.00 | 0.00 | 0.00 | 81 | 1009.7 |
| 20260507165203 | 10 | 153 | 8.0 | 19.3 | 0.00 | 0.00 | 0.00 | 81 | 1009.7 |
| 20260507165003 | 10 | 150 | 8.0 | 19.3 | 0.00 | 0.00 | 0.00 | 81 | 1009.7 |
| 20260507164803 | 10 | 150 | 8.0 | 19.3 | 0.00 | 0.00 | 0.00 | 81 | 1009.8 |
| 20260507164603 | 10 | 149 | 9.7 | 20.9 | 0.00 | 0.00 | 0.00 | 81 | 1009.8 |
| 20260507164403 | 10 | 149 | 9.7 | 20.9 | 0.00 | 0.00 | 0.00 | 81 | 1009.7 |
| 20260507164203 | 10 | 148 | 9.7 | 20.9 | 0.00 | 0.00 | 0.00 | 80 | 1009.7 |
| 20260507164005 | 10 | 148 | 9.7 | 20.9 | 0.00 | 0.00 | 0.00 | 80 | 1009.8 |
| 20260507163803 | 10 | 148 | 9.7 | 20.9 | 0.00 | 0.00 | 0.00 | 80 | 1009.8 |
| 20260507163603 | 11 | 152 | 9.7 | 20.9 | 0.00 | 0.00 | 0.00 | 80 | 1009.8 |
| 20260507163404 | 10 | 151 | 9.7 | 20.9 | 0.00 | 0.00 | 0.00 | 80 | 1009.7 |
| 20260507163203 | 11 | 151 | 9.7 | 20.9 | 0.00 | 0.00 | 0.00 | 80 | 1009.8 |
| 20260507163005 | 11 | 151 | 9.7 | 20.9 | 0.00 | 0.00 | 0.00 | 80 | 1009.8 |
| 20260507162804 | 11 | 151 | 9.7 | 20.9 | 0.00 | 0.00 | 0.00 | 80 | 1009.7 |
| 20260507162603 | 11 | 148 | 9.7 | 20.9 | 0.00 | 0.00 | 0.00 | 80 | 1009.7 |
| 20260507162403 | 11 | 148 | 9.7 | 22.5 | 0.00 | 0.00 | 0.00 | 80 | 1009.6 |
| 20260507162203 | 11 | 148 | 11.3 | 22.5 | 0.00 | 0.00 | 0.00 | 79 | 1009.6 |
| 20260507162004 | 11 | 149 | 11.3 | 22.5 | 0.00 | 0.00 | 0.00 | 79 | 1009.6 |
| 20260507161804 | 11 | 150 | 12.9 | 32.2 | 0.00 | 0.00 | 0.00 | 79 | 1009.6 |
| 20260507161604 | 11 | 150 | 14.5 | 32.2 | 0.00 | 0.00 | 0.00 | 79 | 1009.6 |
| 20260507161403 | 11 | 150 | 16.1 | 32.2 | 0.00 | 0.00 | 0.00 | 78 | 1009.6 |
| 20260507161203 | 11 | 149 | 16.1 | 32.2 | 0.00 | 0.00 | 0.00 | 77 | 1009.7 |
| 20260507161004 | 11 | 149 | 17.7 | 32.2 | 0.00 | 0.00 | 0.00 | 77 | 1009.6 |
| 20260507160803 | 11 | 148 | 17.7 | 30.6 | 0.00 | 0.00 | 0.00 | 77 | 1009.6 |
| 20260507160603 | 11 | 149 | 16.1 | 30.6 | 0.00 | 0.00 | 0.00 | 77 | 1009.6 |
| 20260507160404 | 11 | 151 | 14.5 | 30.6 | 0.00 | 0.00 | 0.00 | 77 | 1009.5 |
| 20260507160203 | 11 | 152 | 14.5 | 35.4 | 0.00 | 0.00 | 0.00 | 77 | 1009.5 |
| 20260507160003 | 11 | 152 | 14.5 | 35.4 | 0.00 | 0.00 | 0.00 | 77 | 1009.5 |
| 20260507155803 | 11 | 152 | 14.5 | 35.4 | 0.00 | 0.00 | 0.00 | 77 | 1009.6 |
| 20260507155603 | 11 | 151 | 12.9 | 35.4 | 0.00 | 0.00 | 0.00 | 77 | 1009.6 |
| 20260507155404 | 11 | 148 | 14.5 | 35.4 | 0.00 | 0.00 | 0.00 | 77 | 1009.5 |
| 20260507155205 | 11 | 147 | 12.9 | 27.4 | 0.00 | 0.00 | 0.00 | 78 | 1009.6 |
| 20260507155003 | 11 | 145 | 11.3 | 27.4 | 0.00 | 0.00 | 0.00 | 79 | 1009.5 |
| 20260507154803 | 11 | 144 | 11.3 | 27.4 | 0.00 | 0.00 | 0.00 | 79 | 1009.6 |
| 20260507154603 | 11 | 143 | 11.3 | 25.7 | 0.00 | 0.00 | 0.00 | 79 | 1009.7 |
| 20260507154405 | 11 | 144 | 11.3 | 25.7 | 0.00 | 0.00 | 0.00 | 79 | 1009.6 |
| 20260507154203 | 11 | 144 | 11.3 | 25.7 | 0.00 | 0.00 | 0.00 | 79 | 1009.6 |
| 20260507154003 | 11 | 145 | 11.3 | 25.7 | 0.00 | 0.00 | 0.00 | 79 | 1009.6 |
| 20260507153803 | 11 | 146 | 12.9 | 27.4 | 0.00 | 0.00 | 0.00 | 79 | 1009.6 |
| 20260507153604 | 11 | 147 | 12.9 | 27.4 | 0.00 | 0.00 | 0.00 | 79 | 1009.6 |
| 20260507153404 | 11 | 147 | 12.9 | 27.4 | 0.00 | 0.00 | 0.00 | 78 | 1009.7 |
| 20260507153204 | 11 | 147 | 14.5 | 27.4 | 0.00 | 0.00 | 0.00 | 78 | 1009.7 |
| 20260507153004 | 11 | 147 | 14.5 | 27.4 | 0.00 | 0.00 | 0.00 | 78 | 1009.6 |
| 20260507152803 | 11 | 147 | 14.5 | 25.7 | 0.00 | 0.00 | 0.00 | 78 | 1009.7 |
| 20260507152604 | 11 | 147 | 12.9 | 20.9 | 0.00 | 0.00 | 0.00 | 78 | 1009.7 |
| 20260507152404 | 11 | 147 | 14.5 | 27.4 | 0.00 | 0.00 | 0.00 | 78 | 1009.7 |
| 20260507152203 | 11 | 146 | 14.5 | 27.4 | 0.00 | 0.00 | 0.00 | 78 | 1009.8 |
| 20260507152004 | 11 | 147 | 14.5 | 27.4 | 0.00 | 0.00 | 0.00 | 78 | 1009.8 |
| 20260507151803 | 11 | 147 | 14.5 | 27.4 | 0.00 | 0.00 | 0.00 | 78 | 1009.9 |
| 20260507151604 | 11 | 147 | 14.5 | 27.4 | 0.00 | 0.00 | 0.00 | 77 | 1009.9 |
| 20260507151404 | 11 | 149 | 14.5 | 27.4 | 0.00 | 0.00 | 0.00 | 77 | 1009.9 |
| 20260507151203 | 11 | 150 | 12.9 | 29.0 | 0.00 | 0.00 | 0.00 | 77 | 1010.0 |
| 20260507151003 | 11 | 149 | 12.9 | 29.0 | 0.00 | 0.00 | 0.00 | 77 | 1010.0 |
| 20260507150804 | 11 | 149 | 11.3 | 29.0 | 0.00 | 0.00 | 0.00 | 76 | 1010.1 |
| 20260507150604 | 11 | 150 | 11.3 | 29.0 | 0.00 | 0.00 | 0.00 | 76 | 1010.0 |
| 20260507150403 | 11 | 149 | 11.3 | 29.0 | 0.00 | 0.00 | 0.00 | 76 | 1010.0 |
| 20260507150203 | 11 | 148 | 11.3 | 27.4 | 0.00 | 0.00 | 0.00 | 76 | 1010.0 |
| 20260507150005 | 11 | 148 | 12.9 | 27.4 | 0.00 | 0.00 | 0.00 | 76 | 1010.0 |
| 20260507145803 | 11 | 148 | 14.5 | 27.4 | 0.00 | 0.00 | 0.00 | 76 | 1010.1 |
| 20260507145604 | 11 | 148 | 14.5 | 27.4 | 0.00 | 0.00 | 0.00 | 75 | 1010.1 |
| 20260507145403 | 11 | 148 | 16.1 | 29.0 | 0.00 | 0.00 | 0.00 | 75 | 1010.1 |
| 20260507145203 | 11 | 149 | 17.7 | 37.0 | 0.00 | 0.00 | 0.00 | 74 | 1010.1 |
| 20260507145004 | 12 | 151 | 17.7 | 37.0 | 0.00 | 0.00 | 0.00 | 74 | 1010.1 |
| 20260507144804 | 12 | 151 | 17.7 | 37.0 | 0.00 | 0.00 | 0.00 | 74 | 1010.2 |
| 20260507144603 | 12 | 151 | 19.3 | 37.0 | 0.00 | 0.00 | 0.00 | 74 | 1010.2 |
| 20260507144403 | 12 | 150 | 17.7 | 37.0 | 0.00 | 0.00 | 0.00 | 74 | 1010.1 |
| 20260507144204 | 12 | 149 | 17.7 | 37.0 | 0.00 | 0.00 | 0.00 | 74 | 1010.1 |
| 20260507144003 | 12 | 148 | 17.7 | 37.0 | 0.00 | 0.00 | 0.00 | 73 | 1010.1 |
| 20260507143803 | 12 | 148 | 17.7 | 37.0 | 0.00 | 0.00 | 0.00 | 73 | 1010.2 |
| 20260507143603 | 12 | 148 | 17.7 | 37.0 | 0.00 | 0.00 | 0.00 | 73 | 1010.2 |
| 20260507143403 | 12 | 149 | 16.1 | 35.4 | 0.00 | 0.00 | 0.00 | 73 | 1010.2 |
| 20260507143204 | 12 | 149 | 16.1 | 30.6 | 0.00 | 0.00 | 0.00 | 73 | 1010.2 |
| 20260507143003 | 12 | 150 | 16.1 | 30.6 | 0.00 | 0.00 | 0.00 | 74 | 1010.3 |
| 20260507142803 | 12 | 149 | 16.1 | 30.6 | 0.00 | 0.00 | 0.00 | 74 | 1010.2 |
| 20260507142604 | 12 | 148 | 16.1 | 30.6 | 0.00 | 0.00 | 0.00 | 74 | 1010.3 |
| 20260507142403 | 12 | 148 | 14.5 | 29.0 | 0.00 | 0.00 | 0.00 | 74 | 1010.2 |
| 20260507142205 | 12 | 148 | 12.9 | 29.0 | 0.00 | 0.00 | 0.00 | 74 | 1010.4 |
| 20260507142003 | 12 | 150 | 11.3 | 29.0 | 0.00 | 0.00 | 0.00 | 74 | 1010.3 |
| 20260507141804 | 12 | 155 | 11.3 | 25.7 | 0.00 | 0.00 | 0.00 | 76 | 1010.3 |
| 20260507141605 | 11 | 159 | 11.3 | 25.7 | 0.00 | 0.00 | 0.00 | 76 | 1010.3 |
| 20260507141403 | 11 | 157 | 12.9 | 30.6 | 0.00 | 0.00 | 0.00 | 74 | 1010.4 |
| 20260507141203 | 11 | 159 | 12.9 | 30.6 | 0.00 | 0.00 | 0.00 | 73 | 1010.4 |
| 20260507141003 | 11 | 158 | 11.3 | 30.6 | 0.00 | 0.00 | 0.00 | 73 | 1010.4 |
| 20260507140804 | 11 | 155 | 11.3 | 30.6 | 0.00 | 0.00 | 0.00 | 73 | 1010.5 |
| 20260507140603 | 11 | 160 | 9.7 | 29.0 | 0.00 | 0.00 | 0.00 | 73 | 1010.4 |
| 20260507140403 | 11 | 162 | 8.0 | 22.5 | 0.00 | 0.00 | 0.00 | 73 | 1010.5 |
| 20260507140204 | 11 | 158 | 9.7 | 22.5 | 0.00 | 0.00 | 0.00 | 73 | 1010.5 |
| 20260507140003 | 11 | 155 | 11.3 | 27.4 | 0.00 | 0.00 | 0.00 | 72 | 1010.6 |
| 20260507135804 | 11 | 153 | 12.9 | 27.4 | 0.00 | 0.00 | 0.00 | 73 | 1010.6 |
| 20260507135603 | 11 | 149 | 14.5 | 29.0 | 0.00 | 0.00 | 0.00 | 73 | 1010.5 |
| 20260507135404 | 11 | 149 | 16.1 | 29.0 | 0.00 | 0.00 | 0.00 | 73 | 1010.5 |
| 20260507135203 | 11 | 149 | 16.1 | 29.0 | 0.00 | 0.00 | 0.00 | 73 | 1010.6 |
| 20260507135003 | 11 | 148 | 16.1 | 29.0 | 0.00 | 0.00 | 0.00 | 73 | 1010.5 |
| 20260507134804 | 11 | 149 | 14.5 | 29.0 | 0.00 | 0.00 | 0.00 | 72 | 1010.6 |
| 20260507134604 | 11 | 149 | 14.5 | 29.0 | 0.00 | 0.00 | 0.00 | 72 | 1010.6 |
| 20260507134403 | 11 | 149 | 12.9 | 27.4 | 0.00 | 0.00 | 0.00 | 73 | 1010.6 |
| 20260507134204 | 11 | 150 | 12.9 | 25.7 | 0.00 | 0.00 | 0.00 | 73 | 1010.5 |
| 20260507134004 | 11 | 151 | 11.3 | 25.7 | 0.00 | 0.00 | 0.00 | 73 | 1010.5 |
| 20260507133804 | 11 | 150 | 11.3 | 25.7 | 0.00 | 0.00 | 0.00 | 72 | 1010.6 |
| 20260507133603 | 11 | 151 | 11.3 | 27.4 | 0.00 | 0.00 | 0.00 | 73 | 1010.5 |
| 20260507133403 | 11 | 154 | 9.7 | 27.4 | 0.00 | 0.00 | 0.00 | 73 | 1010.6 |
| 20260507133205 | 11 | 159 | 9.7 | 27.4 | 0.00 | 0.00 | 0.00 | 73 | 1010.6 |
| 20260507133003 | 11 | 157 | 9.7 | 27.4 | 0.00 | 0.00 | 0.00 | 73 | 1010.6 |
| 20260507132803 | 11 | 158 | 9.7 | 25.7 | 0.00 | 0.00 | 0.00 | 73 | 1010.6 |
| 20260507132603 | 11 | 163 | 8.0 | 20.9 | 0.00 | 0.00 | 0.00 | 72 | 1010.6 |
| 20260507132403 | 11 | 163 | 8.0 | 20.9 | 0.00 | 0.00 | 0.00 | 72 | 1010.7 |
| 20260507132204 | 11 | 162 | 9.7 | 25.7 | 0.00 | 0.00 | 0.00 | 72 | 1010.6 |
| 20260507132004 | 11 | 168 | 9.7 | 25.7 | 0.00 | 0.00 | 0.00 | 71 | 1010.7 |
| 20260507131803 | 11 | 168 | 9.7 | 25.7 | 0.00 | 0.00 | 0.00 | 71 | 1010.7 |
| 20260507131603 | 11 | 168 | 9.7 | 25.7 | 0.00 | 0.00 | 0.00 | 71 | 1010.7 |
| 20260507131403 | 11 | 164 | 11.3 | 25.7 | 0.00 | 0.00 | 0.00 | 70 | 1010.7 |
| 20260507131203 | 11 | 164 | 11.3 | 29.0 | 0.00 | 0.00 | 0.00 | 70 | 1010.7 |
| 20260507131003 | 11 | 161 | 12.9 | 29.0 | 0.00 | 0.00 | 0.00 | 70 | 1010.7 |
| 20260507130803 | 11 | 159 | 12.9 | 29.0 | 0.00 | 0.00 | 0.00 | 69 | 1010.7 |
| 20260507130603 | 11 | 157 | 14.5 | 29.0 | 0.00 | 0.00 | 0.00 | 69 | 1010.6 |
| 20260507130403 | 11 | 159 | 14.5 | 37.0 | 0.00 | 0.00 | 0.00 | 68 | 1010.6 |
| 20260507130203 | 12 | 154 | 14.5 | 37.0 | 0.00 | 0.00 | 0.00 | 68 | 1010.6 |
| 20260507130004 | 12 | 155 | 14.5 | 37.0 | 0.00 | 0.00 | 0.00 | 67 | 1010.5 |
| 20260507125805 | 12 | 156 | 12.9 | 37.0 | 0.00 | 0.00 | 0.00 | 67 | 1010.6 |
| 20260507125603 | 12 | 158 | 11.3 | 37.0 | 0.00 | 0.00 | 0.00 | 69 | 1010.6 |
| 20260507125403 | 12 | 161 | 11.3 | 35.4 | 0.00 | 0.00 | 0.00 | 68 | 1010.6 |
| 20260507125203 | 12 | 162 | 11.3 | 29.0 | 0.00 | 0.00 | 0.00 | 69 | 1010.6 |
| 20260507125003 | 12 | 159 | 11.3 | 29.0 | 0.00 | 0.00 | 0.00 | 70 | 1010.5 |
| 20260507124803 | 12 | 155 | 12.9 | 29.0 | 0.00 | 0.00 | 0.00 | 69 | 1010.6 |
| 20260507124603 | 12 | 153 | 12.9 | 29.0 | 0.00 | 0.00 | 0.00 | 68 | 1010.6 |
| 20260507124404 | 12 | 151 | 12.9 | 37.0 | 0.00 | 0.00 | 0.00 | 69 | 1010.5 |
| 20260507124205 | 12 | 152 | 14.5 | 37.0 | 0.00 | 0.00 | 0.00 | 69 | 1010.6 |
| 20260507124004 | 12 | 154 | 14.5 | 37.0 | 0.00 | 0.00 | 0.00 | 68 | 1010.5 |
| 20260507123803 | 12 | 155 | 14.5 | 37.0 | 0.00 | 0.00 | 0.00 | 68 | 1010.5 |
| 20260507123603 | 12 | 156 | 14.5 | 37.0 | 0.00 | 0.00 | 0.00 | 67 | 1010.4 |
| 20260507123403 | 12 | 157 | 14.5 | 32.2 | 0.00 | 0.00 | 0.00 | 67 | 1010.5 |
| 20260507123203 | 12 | 157 | 12.9 | 32.2 | 0.00 | 0.00 | 0.00 | 67 | 1010.4 |
| 20260507123003 | 12 | 158 | 12.9 | 27.4 | 0.00 | 0.00 | 0.00 | 68 | 1010.5 |
| 20260507122803 | 12 | 159 | 12.9 | 27.4 | 0.00 | 0.00 | 0.00 | 66 | 1010.4 |
| 20260507122603 | 12 | 156 | 12.9 | 27.4 | 0.00 | 0.00 | 0.00 | 67 | 1010.3 |
| 20260507122404 | 12 | 156 | 14.5 | 29.0 | 0.00 | 0.00 | 0.00 | 66 | 1010.5 |
| 20260507122203 | 12 | 154 | 14.5 | 30.6 | 0.00 | 0.00 | 0.00 | 67 | 1010.6 |
| 20260507122004 | 12 | 153 | 14.5 | 30.6 | 0.00 | 0.00 | 0.00 | 67 | 1010.5 |
| 20260507121803 | 12 | 151 | 12.9 | 30.6 | 0.00 | 0.00 | 0.00 | 66 | 1010.4 |
| 20260507121603 | 12 | 152 | 12.9 | 30.6 | 0.00 | 0.00 | 0.00 | 66 | 1010.4 |
| 20260507121404 | 12 | 149 | 11.3 | 30.6 | 0.00 | 0.00 | 0.00 | 68 | 1010.5 |
| 20260507121203 | 12 | 149 | 9.7 | 27.4 | 0.00 | 0.00 | 0.00 | 69 | 1010.4 |
| 20260507121004 | 12 | 149 | 11.3 | 19.3 | 0.00 | 0.00 | 0.00 | 69 | 1010.4 |
| 20260507120804 | 12 | 149 | 11.3 | 20.9 | 0.00 | 0.00 | 0.00 | 68 | 1010.3 |
| 20260507120604 | 12 | 149 | 12.9 | 22.5 | 0.00 | 0.00 | 0.00 | 69 | 1010.4 |
| 20260507120403 | 12 | 150 | 12.9 | 22.5 | 0.00 | 0.00 | 0.00 | 69 | 1010.4 |
| 20260507120204 | 12 | 150 | 12.9 | 22.5 | 0.00 | 0.00 | 0.00 | 68 | 1010.4 |
| 20260507120003 | 12 | 149 | 12.9 | 22.5 | 0.00 | 0.00 | 0.00 | 67 | 1010.4 |
| 20260507115804 | 12 | 149 | 12.9 | 22.5 | 0.00 | 0.00 | 0.00 | 68 | 1010.4 |
| 20260507115604 | 12 | 150 | 12.9 | 22.5 | 0.00 | 0.00 | 0.00 | 68 | 1010.4 |
| 20260507115404 | 12 | 151 | 12.9 | 25.7 | 0.00 | 0.00 | 0.00 | 68 | 1010.5 |
| 20260507115203 | 12 | 150 | 14.5 | 27.4 | 0.00 | 0.00 | 0.00 | 67 | 1010.5 |
| 20260507115003 | 12 | 150 | 16.1 | 30.6 | 0.00 | 0.00 | 0.00 | 67 | 1010.5 |
| 20260507114803 | 12 | 153 | 16.1 | 30.6 | 0.00 | 0.00 | 0.00 | 66 | 1010.5 |
| 20260507114604 | 12 | 157 | 14.5 | 30.6 | 0.00 | 0.00 | 0.00 | 65 | 1010.6 |
| 20260507114404 | 12 | 160 | 12.9 | 30.6 | 0.00 | 0.00 | 0.00 | 65 | 1010.5 |
| 20260507114203 | 13 | 169 | 11.3 | 30.6 | 0.00 | 0.00 | 0.00 | 66 | 1010.6 |
| 20260507114003 | 13 | 177 | 9.7 | 25.7 | 0.00 | 0.00 | 0.00 | 65 | 1010.7 |
| 20260507113803 | 13 | 175 | 9.7 | 25.7 | 0.00 | 0.00 | 0.00 | 64 | 1010.7 |
| 20260507113603 | 13 | 168 | 11.3 | 27.4 | 0.00 | 0.00 | 0.00 | 64 | 1010.6 |
| 20260507113404 | 13 | 164 | 11.3 | 27.4 | 0.00 | 0.00 | 0.00 | 64 | 1010.6 |
| 20260507113204 | 13 | 157 | 12.9 | 32.2 | 0.00 | 0.00 | 0.00 | 66 | 1010.6 |
| 20260507113003 | 13 | 154 | 12.9 | 32.2 | 0.00 | 0.00 | 0.00 | 66 | 1010.7 |
| 20260507112804 | 13 | 152 | 14.5 | 32.2 | 0.00 | 0.00 | 0.00 | 66 | 1010.6 |
| 20260507112603 | 13 | 151 | 16.1 | 32.2 | 0.00 | 0.00 | 0.00 | 66 | 1010.6 |
| 20260507112403 | 13 | 151 | 16.1 | 32.2 | 0.00 | 0.00 | 0.00 | 66 | 1010.5 |
| 20260507112204 | 13 | 156 | 16.1 | 38.6 | 0.00 | 0.00 | 0.00 | 67 | 1010.4 |
| 20260507112004 | 13 | 161 | 16.1 | 38.6 | 0.00 | 0.00 | 0.00 | 65 | 1010.3 |
| 20260507111803 | 13 | 167 | 16.1 | 38.6 | 0.00 | 0.00 | 0.00 | 66 | 1010.3 |
| 20260507111603 | 13 | 171 | 14.5 | 38.6 | 0.00 | 0.00 | 0.00 | 66 | 1010.3 |
| 20260507111403 | 13 | 176 | 12.9 | 38.6 | 0.00 | 0.00 | 0.00 | 65 | 1010.3 |
| 20260507111203 | 13 | 173 | 12.9 | 37.0 | 0.00 | 0.00 | 0.00 | 65 | 1010.3 |
| 20260507111003 | 13 | 166 | 11.3 | 22.5 | 0.00 | 0.00 | 0.00 | 65 | 1010.4 |
| 20260507110803 | 13 | 160 | 11.3 | 22.5 | 0.00 | 0.00 | 0.00 | 65 | 1010.4 |
| 20260507110603 | 13 | 156 | 12.9 | 35.4 | 0.00 | 0.00 | 0.00 | 68 | 1010.4 |
| 20260507110403 | 13 | 152 | 14.5 | 37.0 | 0.00 | 0.00 | 0.00 | 68 | 1010.4 |
| 20260507110204 | 12 | 150 | 16.1 | 37.0 | 0.00 | 0.00 | 0.00 | 68 | 1010.5 |
| 20260507110004 | 12 | 151 | 16.1 | 37.0 | 0.00 | 0.00 | 0.00 | 68 | 1010.5 |
| 20260507105803 | 12 | 150 | 16.1 | 37.0 | 0.00 | 0.00 | 0.00 | 65 | 1010.5 |
| 20260507105604 | 13 | 150 | 14.5 | 37.0 | 0.00 | 0.00 | 0.00 | 65 | 1010.5 |
| 20260507105404 | 13 | 149 | 14.5 | 35.4 | 0.00 | 0.00 | 0.00 | 65 | 1010.5 |
| 20260507105203 | 13 | 149 | 14.5 | 30.6 | 0.00 | 0.00 | 0.00 | 67 | 1010.6 |
| 20260507105004 | 13 | 149 | 16.1 | 38.6 | 0.00 | 0.00 | 0.00 | 68 | 1010.6 |
| 20260507104804 | 13 | 149 | 16.1 | 38.6 | 0.00 | 0.00 | 0.00 | 66 | 1010.6 |
| 20260507104603 | 13 | 149 | 16.1 | 38.6 | 0.00 | 0.00 | 0.00 | 67 | 1010.6 |
| 20260507104404 | 13 | 149 | 16.1 | 38.6 | 0.00 | 0.00 | 0.00 | 66 | 1010.6 |
| 20260507104204 | 13 | 153 | 14.5 | 38.6 | 0.00 | 0.00 | 0.00 | 67 | 1010.6 |
| 20260507104003 | 13 | 155 | 12.9 | 30.6 | 0.00 | 0.00 | 0.00 | 67 | 1010.6 |
| 20260507103803 | 13 | 156 | 14.5 | 29.0 | 0.00 | 0.00 | 0.00 | 67 | 1010.7 |
| 20260507103603 | 13 | 160 | 12.9 | 29.0 | 0.00 | 0.00 | 0.00 | 66 | 1010.6 |
| 20260507103403 | 13 | 163 | 11.3 | 27.4 | 0.00 | 0.00 | 0.00 | 65 | 1010.6 |
| 20260507103203 | 13 | 157 | 12.9 | 27.4 | 0.00 | 0.00 | 0.00 | 66 | 1010.7 |
| 20260507103004 | 13 | 155 | 14.5 | 29.0 | 0.00 | 0.00 | 0.00 | 66 | 1010.7 |
| 20260507102803 | 13 | 153 | 14.5 | 30.6 | 0.00 | 0.00 | 0.00 | 67 | 1010.7 |
| 20260507102603 | 13 | 150 | 16.1 | 30.6 | 0.00 | 0.00 | 0.00 | 68 | 1010.6 |
| 20260507102403 | 13 | 150 | 16.1 | 30.6 | 0.00 | 0.00 | 0.00 | 67 | 1010.6 |
| 20260507102204 | 13 | 151 | 14.5 | 30.6 | 0.00 | 0.00 | 0.00 | 67 | 1010.6 |
| 20260507102007 | 13 | 151 | 14.5 | 30.6 | 0.00 | 0.00 | 0.00 | 68 | 1010.5 |
| 20260507101803 | 13 | 150 | 12.9 | 27.4 | 0.00 | 0.00 | 0.00 | 67 | 1010.5 |
| 20260507101603 | 13 | 153 | 12.9 | 27.4 | 0.00 | 0.00 | 0.00 | 67 | 1010.6 |
| 20260507101404 | 13 | 153 | 12.9 | 27.4 | 0.00 | 0.00 | 0.00 | 68 | 1010.6 |
| 20260507101203 | 13 | 153 | 12.9 | 27.4 | 0.00 | 0.00 | 0.00 | 68 | 1010.6 |
| 20260507101003 | 13 | 153 | 12.9 | 25.7 | 0.00 | 0.00 | 0.00 | 69 | 1010.7 |
| 20260507100804 | 13 | 154 | 12.9 | 25.7 | 0.00 | 0.00 | 0.00 | 68 | 1010.8 |
| 20260507100603 | 13 | 151 | 12.9 | 25.7 | 0.00 | 0.00 | 0.00 | 68 | 1010.8 |
| 20260507100404 | 13 | 149 | 12.9 | 25.7 | 0.00 | 0.00 | 0.00 | 69 | 1010.7 |
| 20260507100203 | 13 | 151 | 12.9 | 25.7 | 0.00 | 0.00 | 0.00 | 69 | 1010.7 |
| 20260507100003 | 12 | 154 | 11.3 | 25.7 | 0.00 | 0.00 | 0.00 | 69 | 1010.7 |
| 20260507095803 | 12 | 153 | 12.9 | 30.6 | 0.00 | 0.00 | 0.00 | 68 | 1010.6 |
| 20260507095603 | 12 | 153 | 14.5 | 30.6 | 0.00 | 0.00 | 0.00 | 69 | 1010.7 |
| 20260507095403 | 12 | 158 | 12.9 | 30.6 | 0.00 | 0.00 | 0.00 | 68 | 1010.7 |
| 20260507095203 | 12 | 155 | 14.5 | 30.6 | 0.00 | 0.00 | 0.00 | 69 | 1010.7 |
| 20260507095003 | 12 | 153 | 16.1 | 30.6 | 0.00 | 0.00 | 0.00 | 69 | 1010.6 |
| 20260507094803 | 12 | 154 | 16.1 | 29.0 | 0.00 | 0.00 | 0.00 | 69 | 1010.7 |
| 20260507094605 | 12 | 154 | 14.5 | 29.0 | 0.00 | 0.00 | 0.00 | 68 | 1010.6 |
| 20260507094403 | 12 | 152 | 16.1 | 29.0 | 0.00 | 0.00 | 0.00 | 69 | 1010.7 |
| 20260507094204 | 12 | 151 | 14.5 | 29.0 | 0.00 | 0.00 | 0.00 | 68 | 1010.7 |
| 20260507094004 | 12 | 153 | 12.9 | 27.4 | 0.00 | 0.00 | 0.00 | 68 | 1010.7 |
| 20260507093803 | 12 | 154 | 11.3 | 27.4 | 0.00 | 0.00 | 0.00 | 70 | 1010.7 |
| 20260507093604 | 12 | 161 | 11.3 | 30.6 | 0.00 | 0.00 | 0.00 | 70 | 1010.7 |
| 20260507093403 | 12 | 161 | 12.9 | 30.6 | 0.00 | 0.00 | 0.00 | 70 | 1010.7 |
| 20260507093204 | 12 | 165 | 12.9 | 30.6 | 0.00 | 0.00 | 0.00 | 70 | 1010.7 |
| 20260507093005 | 12 | 161 | 12.9 | 30.6 | 0.00 | 0.00 | 0.00 | 69 | 1010.7 |
| 20260507092803 | 12 | 161 | 12.9 | 32.2 | 0.00 | 0.00 | 0.00 | 67 | 1010.7 |
| 20260507092604 | 12 | 154 | 12.9 | 32.2 | 0.00 | 0.00 | 0.00 | 68 | 1010.7 |
| 20260507092403 | 12 | 156 | 11.3 | 32.2 | 0.00 | 0.00 | 0.00 | 68 | 1010.7 |
| 20260507092203 | 12 | 154 | 11.3 | 32.2 | 0.00 | 0.00 | 0.00 | 68 | 1010.7 |
| 20260507092003 | 12 | 155 | 11.3 | 32.2 | 0.00 | 0.00 | 0.00 | 69 | 1010.7 |
| 20260507091803 | 12 | 156 | 11.3 | 27.4 | 0.00 | 0.00 | 0.00 | 70 | 1010.7 |
| 20260507091603 | 12 | 157 | 11.3 | 27.4 | 0.00 | 0.00 | 0.00 | 68 | 1010.7 |
| 20260507091403 | 12 | 154 | 11.3 | 27.4 | 0.00 | 0.00 | 0.00 | 69 | 1010.7 |
| 20260507091204 | 11 | 158 | 11.3 | 29.0 | 0.00 | 0.00 | 0.00 | 70 | 1010.7 |
| 20260507091004 | 11 | 163 | 11.3 | 29.0 | 0.00 | 0.00 | 0.00 | 70 | 1010.7 |
| 20260507090804 | 11 | 167 | 11.3 | 29.0 | 0.00 | 0.00 | 0.00 | 72 | 1010.8 |
| 20260507090604 | 11 | 170 | 11.3 | 29.0 | 0.00 | 0.00 | 0.00 | 71 | 1010.8 |
| 20260507090403 | 11 | 173 | 11.3 | 29.0 | 0.00 | 0.00 | 0.00 | 70 | 1010.8 |
| 20260507090204 | 10 | 170 | 11.3 | 29.0 | 0.00 | 0.00 | 0.00 | 70 | 1010.7 |
| 20260507090004 | 10 | 166 | 11.3 | 29.0 | 0.00 | 0.00 | 0.00 | 70 | 1010.7 |
| 20260507085804 | 10 | 163 | 11.3 | 29.0 | 0.00 | 0.00 | 0.00 | 70 | 1010.8 |
| 20260507085603 | 10 | 162 | 11.3 | 29.0 | 0.00 | 0.00 | 0.00 | 70 | 1010.8 |
| 20260507085404 | 10 | 163 | 11.3 | 29.0 | 0.00 | 0.00 | 0.00 | 70 | 1010.8 |
| 20260507085203 | 10 | 162 | 11.3 | 29.0 | 0.00 | 0.00 | 0.00 | 70 | 1010.8 |
| 20260507085003 | 10 | 167 | 9.7 | 27.4 | 0.00 | 0.00 | 0.00 | 70 | 1010.7 |
| 20260507084803 | 10 | 170 | 9.7 | 20.9 | 0.00 | 0.00 | 0.00 | 69 | 1010.8 |
| 20260507084604 | 11 | 167 | 9.7 | 22.5 | 0.00 | 0.00 | 0.00 | 68 | 1010.9 |
| 20260507084403 | 11 | 163 | 9.7 | 22.5 | 0.00 | 0.00 | 0.00 | 69 | 1010.8 |
| 20260507084203 | 11 | 165 | 9.7 | 22.5 | 0.00 | 0.00 | 0.00 | 69 | 1010.8 |
| 20260507084003 | 11 | 163 | 11.3 | 22.5 | 0.00 | 0.00 | 0.00 | 68 | 1010.8 |
| 20260507083803 | 11 | 164 | 11.3 | 22.5 | 0.00 | 0.00 | 0.00 | 69 | 1010.7 |
| 20260507083603 | 11 | 163 | 11.3 | 25.7 | 0.00 | 0.00 | 0.00 | 69 | 1010.7 |
| 20260507083403 | 11 | 162 | 11.3 | 25.7 | 0.00 | 0.00 | 0.00 | 71 | 1010.7 |
| 20260507083203 | 10 | 158 | 11.3 | 25.7 | 0.00 | 0.00 | 0.00 | 71 | 1010.7 |
| 20260507083003 | 10 | 156 | 11.3 | 25.7 | 0.00 | 0.00 | 0.00 | 70 | 1010.7 |
| 20260507082803 | 10 | 154 | 11.3 | 25.7 | 0.00 | 0.00 | 0.00 | 70 | 1010.8 |
| 20260507082604 | 10 | 154 | 11.3 | 22.5 | 0.00 | 0.00 | 0.00 | 70 | 1010.7 |
| 20260507082403 | 10 | 154 | 11.3 | 25.7 | 0.00 | 0.00 | 0.00 | 69 | 1010.7 |
| 20260507082204 | 10 | 158 | 11.3 | 27.4 | 0.00 | 0.00 | 0.00 | 69 | 1010.8 |
| 20260507082004 | 10 | 162 | 11.3 | 27.4 | 0.00 | 0.00 | 0.00 | 69 | 1010.8 |
| 20260507081803 | 10 | 163 | 9.7 | 27.4 | 0.00 | 0.00 | 0.00 | 69 | 1010.7 |
| 20260507081603 | 10 | 167 | 9.7 | 27.4 | 0.00 | 0.00 | 0.00 | 69 | 1010.8 |
| 20260507081403 | 10 | 170 | 9.7 | 27.4 | 0.00 | 0.00 | 0.00 | 69 | 1010.8 |
| 20260507081203 | 10 | 164 | 9.7 | 20.9 | 0.00 | 0.00 | 0.00 | 70 | 1010.8 |
| 20260507081003 | 10 | 157 | 9.7 | 20.9 | 0.00 | 0.00 | 0.00 | 71 | 1010.8 |
| 20260507080805 | 10 | 156 | 9.7 | 20.9 | 0.00 | 0.00 | 0.00 | 71 | 1010.8 |
| 20260507080603 | 10 | 154 | 9.7 | 20.9 | 0.00 | 0.00 | 0.00 | 71 | 1010.8 |
| 20260507080403 | 10 | 149 | 9.7 | 25.7 | 0.00 | 0.00 | 0.00 | 72 | 1010.9 |
| 20260507080203 | 10 | 150 | 9.7 | 25.7 | 0.00 | 0.00 | 0.00 | 71 | 1010.9 |
| 20260507080003 | 10 | 152 | 8.0 | 25.7 | 0.00 | 0.00 | 0.00 | 72 | 1010.9 |
| 20260507075804 | 10 | 151 | 8.0 | 25.7 | 0.00 | 0.00 | 0.00 | 72 | 1010.9 |
| 20260507075604 | 10 | 150 | 8.0 | 25.7 | 0.00 | 0.00 | 0.00 | 72 | 1010.9 |
| 20260507075404 | 10 | 151 | 8.0 | 19.3 | 0.00 | 0.00 | 0.00 | 72 | 1010.9 |
| 20260507075203 | 10 | 150 | 8.0 | 17.7 | 0.00 | 0.00 | 0.00 | 72 | 1010.9 |
| 20260507075003 | 10 | 147 | 9.7 | 17.7 | 0.00 | 0.00 | 0.00 | 72 | 1010.9 |
| 20260507074804 | 10 | 146 | 9.7 | 20.9 | 0.00 | 0.00 | 0.00 | 72 | 1011.0 |
| 20260507074603 | 10 | 145 | 9.7 | 20.9 | 0.00 | 0.00 | 0.00 | 72 | 1011.0 |
| 20260507074404 | 10 | 145 | 9.7 | 20.9 | 0.00 | 0.00 | 0.00 | 72 | 1011.0 |
| 20260507074203 | 10 | 145 | 9.7 | 20.9 | 0.00 | 0.00 | 0.00 | 72 | 1010.9 |
| 20260507074004 | 10 | 146 | 8.0 | 20.9 | 0.00 | 0.00 | 0.00 | 72 | 1010.9 |
| 20260507073805 | 10 | 147 | 8.0 | 17.7 | 0.00 | 0.00 | 0.00 | 73 | 1010.9 |
| 20260507073603 | 10 | 148 | 9.7 | 19.3 | 0.00 | 0.00 | 0.00 | 73 | 1010.9 |
| 20260507073403 | 10 | 147 | 11.3 | 19.3 | 0.00 | 0.00 | 0.00 | 74 | 1011.0 |
| 20260507073204 | 10 | 148 | 11.3 | 19.3 | 0.00 | 0.00 | 0.00 | 74 | 1010.9 |
| 20260507073004 | 10 | 148 | 11.3 | 19.3 | 0.00 | 0.00 | 0.00 | 74 | 1010.9 |
| 20260507072804 | 10 | 149 | 11.3 | 22.5 | 0.00 | 0.00 | 0.00 | 75 | 1011.0 |
| 20260507072604 | 9 | 151 | 11.3 | 22.5 | 0.00 | 0.00 | 0.00 | 75 | 1010.9 |
| 20260507072403 | 9 | 153 | 11.3 | 22.5 | 0.00 | 0.00 | 0.00 | 75 | 1010.9 |
| 20260507072204 | 9 | 152 | 11.3 | 22.5 | 0.00 | 0.00 | 0.00 | 75 | 1010.9 |
| 20260507072003 | 8 | 150 | 11.3 | 22.5 | 0.00 | 0.00 | 0.00 | 75 | 1010.9 |
| 20260507071803 | 8 | 150 | 12.9 | 20.9 | 0.00 | 0.00 | 0.00 | 75 | 1010.9 |
| 20260507071603 | 8 | 148 | 12.9 | 20.9 | 0.00 | 0.00 | 0.00 | 75 | 1010.9 |
| 20260507071403 | 8 | 147 | 12.9 | 20.9 | 0.00 | 0.00 | 0.00 | 75 | 1011.0 |
| 20260507071203 | 8 | 146 | 11.3 | 20.9 | 0.00 | 0.00 | 0.00 | 75 | 1011.0 |
| 20260507071003 | 8 | 147 | 11.3 | 20.9 | 0.00 | 0.00 | 0.00 | 75 | 1010.9 |
| 20260507070804 | 8 | 147 | 9.7 | 27.4 | 0.00 | 0.00 | 0.00 | 76 | 1011.0 |
| 20260507070603 | 8 | 147 | 9.7 | 27.4 | 0.00 | 0.00 | 0.00 | 77 | 1011.0 |
| 20260507070404 | 8 | 149 | 9.7 | 27.4 | 0.00 | 0.00 | 0.00 | 76 | 1011.0 |
| 20260507070203 | 8 | 152 | 9.7 | 27.4 | 0.00 | 0.00 | 0.00 | 76 | 1011.0 |
| 20260507070004 | 8 | 151 | 9.7 | 27.4 | 0.00 | 0.00 | 0.00 | 76 | 1011.0 |
| 20260507065804 | 8 | 151 | 9.7 | 20.9 | 0.00 | 0.00 | 0.00 | 76 | 1011.0 |
| 20260507065603 | 8 | 152 | 11.3 | 22.5 | 0.00 | 0.00 | 0.00 | 76 | 1011.0 |
| 20260507065405 | 8 | 151 | 11.3 | 22.5 | 0.00 | 0.00 | 0.00 | 76 | 1010.9 |
| 20260507065204 | 8 | 149 | 11.3 | 22.5 | 0.00 | 0.00 | 0.00 | 76 | 1011.0 |
| 20260507065005 | 8 | 149 | 11.3 | 22.5 | 0.00 | 0.00 | 0.00 | 76 | 1011.0 |
| 20260507064803 | 8 | 150 | 11.3 | 22.5 | 0.00 | 0.00 | 0.00 | 76 | 1011.0 |
| 20260507064603 | 8 | 149 | 9.7 | 22.5 | 0.00 | 0.00 | 0.00 | 76 | 1011.0 |
| 20260507064403 | 8 | 149 | 9.7 | 19.3 | 0.00 | 0.00 | 0.00 | 76 | 1010.9 |
| 20260507064205 | 8 | 148 | 8.0 | 19.3 | 0.00 | 0.00 | 0.00 | 76 | 1010.9 |
| 20260507064003 | 8 | 148 | 8.0 | 19.3 | 0.00 | 0.00 | 0.00 | 77 | 1011.0 |
| 20260507063803 | 8 | 149 | 8.0 | 19.3 | 0.00 | 0.00 | 0.00 | 77 | 1010.9 |
| 20260507063603 | 7 | 147 | 8.0 | 19.3 | 0.00 | 0.00 | 0.00 | 78 | 1011.0 |
| 20260507063404 | 7 | 147 | 8.0 | 19.3 | 0.00 | 0.00 | 0.00 | 78 | 1011.0 |
| 20260507063204 | 7 | 148 | 8.0 | 19.3 | 0.00 | 0.00 | 0.00 | 78 | 1011.0 |
| 20260507063004 | 7 | 148 | 6.4 | 16.1 | 0.00 | 0.00 | 0.00 | 78 | 1011.0 |
| 20260507062803 | 7 | 147 | 8.0 | 17.7 | 0.00 | 0.00 | 0.00 | 78 | 1011.0 |
| 20260507062603 | 7 | 148 | 8.0 | 17.7 | 0.00 | 0.00 | 0.00 | 77 | 1011.0 |
| 20260507062405 | 7 | 148 | 8.0 | 17.7 | 0.00 | 0.00 | 0.00 | 77 | 1011.0 |
| 20260507062204 | 7 | 147 | 8.0 | 17.7 | 0.00 | 0.00 | 0.00 | 77 | 1011.0 |
| 20260507062004 | 7 | 147 | 8.0 | 17.7 | 0.00 | 0.00 | 0.00 | 77 | 1011.0 |
| 20260507061803 | 7 | 152 | 6.4 | 19.3 | 0.00 | 0.00 | 0.00 | 77 | 1011.0 |
| 20260507061603 | 7 | 151 | 8.0 | 19.3 | 0.00 | 0.00 | 0.00 | 77 | 1011.1 |
| 20260507061405 | 7 | 151 | 8.0 | 19.3 | 0.00 | 0.00 | 0.00 | 77 | 1011.0 |
| 20260507061204 | 7 | 152 | 8.0 | 19.3 | 0.00 | 0.00 | 0.00 | 78 | 1011.0 |
| 20260507061004 | 7 | 154 | 8.0 | 19.3 | 0.00 | 0.00 | 0.00 | 78 | 1011.0 |
| 20260507060803 | 7 | 151 | 6.4 | 17.7 | 0.00 | 0.00 | 0.00 | 78 | 1011.1 |
| 20260507060604 | 7 | 157 | 6.4 | 17.7 | 0.00 | 0.00 | 0.00 | 79 | 1011.0 |
| 20260507060404 | 7 | 162 | 6.4 | 16.1 | 0.00 | 0.00 | 0.00 | 79 | 1011.1 |
| 20260507060203 | 7 | 166 | 6.4 | 16.1 | 0.00 | 0.00 | 0.00 | 79 | 1011.0 |
| 20260507060003 | 7 | 168 | 6.4 | 16.1 | 0.00 | 0.00 | 0.00 | 80 | 1011.1 |
| 20260507055804 | 7 | 167 | 6.4 | 16.1 | 0.00 | 0.00 | 0.00 | 80 | 1011.1 |
| 20260507055603 | 7 | 169 | 6.4 | 16.1 | 0.00 | 0.00 | 0.00 | 80 | 1011.1 |
| 20260507055404 | 6 | 170 | 6.4 | 16.1 | 0.00 | 0.00 | 0.00 | 80 | 1011.1 |
| 20260507055203 | 6 | 167 | 6.4 | 16.1 | 0.00 | 0.00 | 0.00 | 80 | 1011.1 |
| 20260507055003 | 6 | 163 | 8.0 | 17.7 | 0.00 | 0.00 | 0.00 | 81 | 1011.1 |
| 20260507054803 | 6 | 166 | 6.4 | 17.7 | 0.00 | 0.00 | 0.00 | 81 | 1011.1 |
| 20260507054603 | 6 | 162 | 8.0 | 19.3 | 0.00 | 0.00 | 0.00 | 81 | 1011.1 |
| 20260507054404 | 6 | 164 | 8.0 | 19.3 | 0.00 | 0.00 | 0.00 | 81 | 1011.1 |
| 20260507054203 | 6 | 165 | 6.4 | 19.3 | 0.00 | 0.00 | 0.00 | 81 | 1011.0 |
| 20260507054003 | 6 | 166 | 6.4 | 19.3 | 0.00 | 0.00 | 0.00 | 81 | 1011.0 |
| 20260507053803 | 6 | 164 | 6.4 | 19.3 | 0.00 | 0.00 | 0.00 | 82 | 1011.0 |
| 20260507053603 | 6 | 162 | 6.4 | 19.3 | 0.00 | 0.00 | 0.00 | 82 | 1011.0 |
| 20260507053403 | 6 | 154 | 8.0 | 19.3 | 0.00 | 0.00 | 0.00 | 82 | 1011.0 |
| 20260507053203 | 6 | 153 | 8.0 | 19.3 | 0.00 | 0.00 | 0.00 | 83 | 1011.0 |
| 20260507053003 | 6 | 153 | 8.0 | 19.3 | 0.00 | 0.00 | 0.00 | 83 | 1011.1 |
| 20260507052803 | 6 | 151 | 8.0 | 19.3 | 0.00 | 0.00 | 0.00 | 83 | 1011.0 |
| 20260507052603 | 5 | 148 | 8.0 | 19.3 | 0.00 | 0.00 | 0.00 | 84 | 1011.0 |
| 20260507052403 | 5 | 147 | 6.4 | 12.9 | 0.00 | 0.00 | 0.00 | 84 | 1011.1 |
| 20260507052204 | 5 | 148 | 6.4 | 12.9 | 0.00 | 0.00 | 0.00 | 84 | 1011.1 |
| 20260507052004 | 5 | 145 | 6.4 | 12.9 | 0.00 | 0.00 | 0.00 | 84 | 1011.1 |
| 20260507051804 | 5 | 147 | 6.4 | 12.9 | 0.00 | 0.00 | 0.00 | 84 | 1011.1 |
| 20260507051603 | 5 | 154 | 6.4 | 12.9 | 0.00 | 0.00 | 0.00 | 84 | 1011.1 |
| 20260507051403 | 5 | 157 | 6.4 | 12.9 | 0.00 | 0.00 | 0.00 | 85 | 1011.1 |
| 20260507051203 | 5 | 155 | 6.4 | 12.9 | 0.00 | 0.00 | 0.00 | 84 | 1011.1 |
| 20260507051003 | 5 | 157 | 6.4 | 11.3 | 0.00 | 0.00 | 0.00 | 84 | 1011.1 |
| 20260507050805 | 5 | 156 | 4.8 | 11.3 | 0.00 | 0.00 | 0.00 | 84 | 1011.2 |
| 20260507050603 | 5 | 150 | 4.8 | 11.3 | 0.00 | 0.00 | 0.00 | 84 | 1011.2 |
| 20260507050403 | 5 | 147 | 4.8 | 9.7 | 0.00 | 0.00 | 0.00 | 84 | 1011.2 |
| 20260507050203 | 4 | 147 | 4.8 | 9.7 | 0.00 | 0.00 | 0.00 | 84 | 1011.2 |
| 20260507050005 | 4 | 147 | 4.8 | 9.7 | 0.00 | 0.00 | 0.00 | 84 | 1011.2 |
| 20260507045804 | 4 | 148 | 4.8 | 9.7 | 0.00 | 0.00 | 0.00 | 84 | 1011.2 |
| 20260507045603 | 4 | 150 | 4.8 | 9.7 | 0.00 | 0.00 | 0.00 | 84 | 1011.3 |
| 20260507045403 | 4 | 154 | 4.8 | 11.3 | 0.00 | 0.00 | 0.00 | 84 | 1011.2 |
| 20260507045203 | 4 | 158 | 4.8 | 11.3 | 0.00 | 0.00 | 0.00 | 84 | 1011.3 |
| 20260507045004 | 4 | 161 | 4.8 | 11.3 | 0.00 | 0.00 | 0.00 | 84 | 1011.3 |
| 20260507044803 | 4 | 162 | 4.8 | 11.3 | 0.00 | 0.00 | 0.00 | 84 | 1011.3 |
| 20260507044604 | 4 | 163 | 4.8 | 11.3 | 0.00 | 0.00 | 0.00 | 84 | 1011.3 |
| 20260507044403 | 4 | 166 | 4.8 | 11.3 | 0.00 | 0.00 | 0.00 | 84 | 1011.3 |
| 20260507044203 | 4 | 166 | 4.8 | 11.3 | 0.00 | 0.00 | 0.00 | 84 | 1011.3 |
| 20260507044004 | 4 | 168 | 4.8 | 11.3 | 0.00 | 0.00 | 0.00 | 84 | 1011.3 |
| 20260507043804 | 4 | 167 | 4.8 | 11.3 | 0.00 | 0.00 | 0.00 | 84 | 1011.3 |
| 20260507043603 | 4 | 166 | 3.2 | 11.3 | 0.00 | 0.00 | 0.00 | 84 | 1011.3 |
| 20260507043403 | 4 | 160 | 4.8 | 11.3 | 0.00 | 0.00 | 0.00 | 84 | 1011.3 |
| 20260507043203 | 4 | 155 | 4.8 | 12.9 | 0.00 | 0.00 | 0.00 | 84 | 1011.3 |
| 20260507043004 | 4 | 151 | 4.8 | 12.9 | 0.00 | 0.00 | 0.00 | 84 | 1011.3 |
| 20260507042805 | 4 | 150 | 4.8 | 12.9 | 0.00 | 0.00 | 0.00 | 83 | 1011.3 |
| 20260507042603 | 4 | 150 | 6.4 | 12.9 | 0.00 | 0.00 | 0.00 | 83 | 1011.3 |
| 20260507042403 | 4 | 150 | 6.4 | 12.9 | 0.00 | 0.00 | 0.00 | 83 | 1011.3 |
| 20260507042203 | 4 | 150 | 4.8 | 11.3 | 0.00 | 0.00 | 0.00 | 83 | 1011.3 |
| 20260507042004 | 4 | 149 | 4.8 | 9.7 | 0.00 | 0.00 | 0.00 | 83 | 1011.4 |
| 20260507041804 | 4 | 149 | 3.2 | 8.0 | 0.00 | 0.00 | 0.00 | 82 | 1011.3 |
| 20260507041604 | 4 | 149 | 3.2 | 8.0 | 0.00 | 0.00 | 0.00 | 82 | 1011.4 |
| 20260507041404 | 4 | 148 | 3.2 | 8.0 | 0.00 | 0.00 | 0.00 | 82 | 1011.4 |
| 20260507041203 | 4 | 148 | 3.2 | 8.0 | 0.00 | 0.00 | 0.00 | 82 | 1011.5 |
| 20260507041004 | 4 | 148 | 3.2 | 8.0 | 0.00 | 0.00 | 0.00 | 82 | 1011.5 |
| 20260507040803 | 4 | 148 | 4.8 | 9.7 | 0.00 | 0.00 | 0.00 | 82 | 1011.5 |
| 20260507040603 | 4 | 147 | 4.8 | 9.7 | 0.00 | 0.00 | 0.00 | 82 | 1011.5 |
| 20260507040405 | 4 | 147 | 4.8 | 9.7 | 0.00 | 0.00 | 0.00 | 82 | 1011.4 |
| 20260507040204 | 4 | 147 | 4.8 | 9.7 | 0.00 | 0.00 | 0.00 | 82 | 1011.4 |
| 20260507040003 | 4 | 147 | 4.8 | 11.3 | 0.00 | 0.00 | 0.00 | 82 | 1011.4 |
| 20260507035804 | 4 | 147 | 4.8 | 11.3 | 0.00 | 0.00 | 0.00 | 82 | 1011.4 |
| 20260507035603 | 5 | 148 | 4.8 | 11.3 | 0.00 | 0.00 | 0.00 | 82 | 1011.5 |
| 20260507035403 | 5 | 148 | 6.4 | 11.3 | 0.00 | 0.00 | 0.00 | 82 | 1011.6 |
| 20260507035204 | 5 | 148 | 6.4 | 9.7 | 0.00 | 0.00 | 0.00 | 82 | 1011.6 |
| 20260507035003 | 5 | 148 | 4.8 | 9.7 | 0.00 | 0.00 | 0.00 | 82 | 1011.6 |
| 20260507034804 | 5 | 148 | 4.8 | 9.7 | 0.00 | 0.00 | 0.00 | 82 | 1011.6 |
| 20260507034603 | 5 | 148 | 4.8 | 9.7 | 0.00 | 0.00 | 0.00 | 82 | 1011.7 |
| 20260507034404 | 5 | 148 | 4.8 | 9.7 | 0.00 | 0.00 | 0.00 | 82 | 1011.7 |
| 20260507034203 | 5 | 147 | 4.8 | 9.7 | 0.00 | 0.00 | 0.00 | 82 | 1011.8 |
| 20260507034004 | 5 | 146 | 4.8 | 9.7 | 0.00 | 0.00 | 0.00 | 82 | 1011.7 |
| 20260507033803 | 5 | 145 | 4.8 | 9.7 | 0.00 | 0.00 | 0.00 | 82 | 1011.8 |
| 20260507033603 | 5 | 146 | 6.4 | 9.7 | 0.00 | 0.00 | 0.00 | 82 | 1011.7 |
| 20260507033403 | 5 | 146 | 6.4 | 9.7 | 0.00 | 0.00 | 0.00 | 82 | 1011.8 |
| 20260507033204 | 5 | 147 | 6.4 | 16.1 | 0.00 | 0.00 | 0.00 | 82 | 1011.8 |
| 20260507033003 | 5 | 147 | 6.4 | 16.1 | 0.00 | 0.00 | 0.00 | 82 | 1011.9 |
| 20260507032805 | 5 | 147 | 6.4 | 16.1 | 0.00 | 0.00 | 0.00 | 82 | 1011.9 |
| 20260507032603 | 5 | 147 | 6.4 | 16.1 | 0.00 | 0.00 | 0.00 | 82 | 1011.9 |
| 20260507032404 | 5 | 149 | 4.8 | 16.1 | 0.00 | 0.00 | 0.00 | 81 | 1011.9 |
| 20260507032203 | 5 | 152 | 4.8 | 11.3 | 0.00 | 0.00 | 0.00 | 81 | 1011.9 |
| 20260507032003 | 5 | 154 | 4.8 | 16.1 | 0.00 | 0.00 | 0.00 | 81 | 1011.9 |
| 20260507031804 | 5 | 158 | 4.8 | 16.1 | 0.00 | 0.00 | 0.00 | 81 | 1011.9 |
| 20260507031603 | 5 | 161 | 4.8 | 16.1 | 0.00 | 0.00 | 0.00 | 81 | 1011.9 |
| 20260507031404 | 5 | 158 | 4.8 | 17.7 | 0.00 | 0.00 | 0.00 | 81 | 1011.8 |
| 20260507031204 | 5 | 154 | 6.4 | 17.7 | 0.00 | 0.00 | 0.00 | 81 | 1011.8 |
| 20260507031003 | 5 | 153 | 4.8 | 17.7 | 0.00 | 0.00 | 0.00 | 81 | 1011.9 |
| 20260507030803 | 5 | 150 | 4.8 | 17.7 | 0.00 | 0.00 | 0.00 | 81 | 1011.9 |
| 20260507030603 | 5 | 146 | 4.8 | 17.7 | 0.00 | 0.00 | 0.00 | 81 | 1011.9 |
| 20260507030404 | 5 | 145 | 6.4 | 16.1 | 0.00 | 0.00 | 0.00 | 81 | 1011.9 |
| 20260507030204 | 5 | 145 | 4.8 | 16.1 | 0.00 | 0.00 | 0.00 | 80 | 1011.9 |
| 20260507030003 | 5 | 144 | 6.4 | 16.1 | 0.00 | 0.00 | 0.00 | 80 | 1011.8 |
| 20260507025803 | 5 | 144 | 6.4 | 16.1 | 0.00 | 0.00 | 0.00 | 80 | 1011.9 |
| 20260507025603 | 5 | 143 | 6.4 | 16.1 | 0.00 | 0.00 | 0.00 | 80 | 1011.9 |
| 20260507025403 | 5 | 143 | 4.8 | 9.7 | 0.00 | 0.00 | 0.00 | 80 | 1012.0 |
| 20260507025203 | 5 | 142 | 4.8 | 12.9 | 0.00 | 0.00 | 0.00 | 80 | 1011.9 |
| 20260507025004 | 5 | 143 | 4.8 | 12.9 | 0.00 | 0.00 | 0.00 | 80 | 1012.0 |
| 20260507024803 | 5 | 143 | 6.4 | 17.7 | 0.00 | 0.00 | 0.00 | 80 | 1011.9 |
| 20260507024603 | 5 | 143 | 6.4 | 17.7 | 0.00 | 0.00 | 0.00 | 80 | 1012.0 |
| 20260507024404 | 5 | 143 | 6.4 | 17.7 | 0.00 | 0.00 | 0.00 | 80 | 1012.0 |
| 20260507024203 | 5 | 145 | 6.4 | 17.7 | 0.00 | 0.00 | 0.00 | 80 | 1011.9 |
| 20260507024004 | 6 | 146 | 8.0 | 19.3 | 0.00 | 0.00 | 0.00 | 80 | 1011.9 |
| 20260507023803 | 6 | 147 | 8.0 | 19.3 | 0.00 | 0.00 | 0.00 | 80 | 1011.9 |
| 20260507023605 | 6 | 148 | 8.0 | 20.9 | 0.00 | 0.00 | 0.00 | 80 | 1011.9 |
| 20260507023403 | 6 | 150 | 9.7 | 20.9 | 0.00 | 0.00 | 0.00 | 80 | 1011.9 |
| 20260507023203 | 5 | 152 | 8.0 | 20.9 | 0.00 | 0.00 | 0.00 | 80 | 1011.9 |
| 20260507023004 | 5 | 153 | 8.0 | 20.9 | 0.00 | 0.00 | 0.00 | 80 | 1011.9 |
| 20260507022804 | 6 | 156 | 8.0 | 20.9 | 0.00 | 0.00 | 0.00 | 80 | 1011.9 |
| 20260507022603 | 6 | 156 | 8.0 | 19.3 | 0.00 | 0.00 | 0.00 | 80 | 1011.9 |
| 20260507022403 | 6 | 155 | 8.0 | 16.1 | 0.00 | 0.00 | 0.00 | 80 | 1011.9 |
| 20260507022203 | 6 | 152 | 8.0 | 17.7 | 0.00 | 0.00 | 0.00 | 80 | 1011.9 |
| 20260507022004 | 6 | 151 | 8.0 | 17.7 | 0.00 | 0.00 | 0.00 | 80 | 1012.0 |
| 20260507021803 | 6 | 148 | 8.0 | 17.7 | 0.00 | 0.00 | 0.00 | 80 | 1011.9 |
| 20260507021603 | 6 | 147 | 8.0 | 17.7 | 0.00 | 0.00 | 0.00 | 80 | 1011.9 |
| 20260507021404 | 6 | 148 | 9.7 | 17.7 | 0.00 | 0.00 | 0.00 | 80 | 1011.9 |
| 20260507021205 | 6 | 150 | 8.0 | 17.7 | 0.00 | 0.00 | 0.00 | 80 | 1011.9 |
| 20260507021003 | 6 | 152 | 8.0 | 17.7 | 0.00 | 0.00 | 0.00 | 80 | 1011.9 |
| 20260507020803 | 6 | 154 | 6.4 | 17.7 | 0.00 | 0.00 | 0.00 | 80 | 1012.0 |
| 20260507020603 | 6 | 160 | 6.4 | 17.7 | 0.00 | 0.00 | 0.00 | 80 | 1012.0 |
| 20260507020403 | 6 | 168 | 4.8 | 12.9 | 0.00 | 0.00 | 0.00 | 80 | 1012.1 |
| 20260507020204 | 6 | 172 | 4.8 | 9.7 | 0.00 | 0.00 | 0.00 | 80 | 1012.2 |
| 20260507020003 | 6 | 176 | 4.8 | 9.7 | 0.00 | 0.00 | 0.00 | 80 | 1012.1 |
| 20260507015804 | 6 | 181 | 4.8 | 9.7 | 0.00 | 0.00 | 0.00 | 80 | 1012.1 |
| 20260507015603 | 6 | 177 | 4.8 | 9.7 | 0.00 | 0.00 | 0.00 | 80 | 1012.1 |
| 20260507015403 | 6 | 169 | 4.8 | 9.7 | 0.00 | 0.00 | 0.00 | 80 | 1012.1 |
| 20260507015203 | 6 | 164 | 4.8 | 11.3 | 0.00 | 0.00 | 0.00 | 80 | 1012.1 |
| 20260507015003 | 6 | 164 | 6.4 | 12.9 | 0.00 | 0.00 | 0.00 | 80 | 1012.1 |
| 20260507014803 | 6 | 160 | 6.4 | 20.9 | 0.00 | 0.00 | 0.00 | 80 | 1012.1 |
| 20260507014604 | 6 | 158 | 6.4 | 20.9 | 0.00 | 0.00 | 0.00 | 80 | 1012.1 |
| 20260507014403 | 6 | 164 | 6.4 | 20.9 | 0.00 | 0.00 | 0.00 | 81 | 1012.1 |
| 20260507014204 | 6 | 168 | 6.4 | 20.9 | 0.00 | 0.00 | 0.00 | 81 | 1012.1 |